N4ASP-13 Weather Reports


time (UTC)temp
C
wind
direction
speed
KPH
gust
KPH
rain 1hr
cm
rain 24hr
cm
rain mn
cm
humidity
%
barometer
mb
20260831160647 28 49 1.6 6.4 0.00 0.00 0.00 68 1023.6
20260831160546 28 49 1.6 6.4 0.00 0.00 0.00 68 1023.6
20260831160441 28 49 1.6 6.4 0.00 0.00 0.00 69 1023.5
20260831160341 28 49 1.6 6.4 0.00 0.00 0.00 72 1023.5
20260831160241 28 48 1.6 6.4 0.00 0.00 0.00 69 1023.6
20260831160141 28 48 1.6 6.4 0.00 0.00 0.00 70 1023.5
20260831160038 28 49 1.6 6.4 0.00 0.00 0.00 71 1023.5
20260831155930 28 49 1.6 6.4 0.00 0.00 0.00 72 1023.5
20260831155828 28 49 0.0 6.4 0.00 0.00 0.00 72 1023.5
20260831155728 27 49 0.0 3.2 0.00 0.00 0.00 72 1023.5
20260831155628 27 49 0.0 3.2 0.00 0.00 0.00 70 1023.5
20260831155528 27 49 0.0 3.2 0.00 0.00 0.00 71 1023.5
20260831155425 27 49 0.0 3.2 0.00 0.00 0.00 71 1023.5
20260831155326 27 49 0.0 3.2 0.00 0.00 0.00 71 1023.5
20260831155226 27 41 0.0 0.0 0.00 0.00 0.00 73 1023.5
20260831155125 27 344 0.0 0.0 0.00 0.00 0.00 74 1023.5
20260831155022 27 344 0.0 0.0 0.00 0.00 0.00 73 1023.5
20260831154922 27 344 0.0 0.0 0.00 0.00 0.00 75 1023.5
20260831154819 27 344 0.0 0.0 0.00 0.00 0.00 73 1023.5
20260831154719 27 344 0.0 0.0 0.00 0.00 0.00 75 1023.5
20260831154618 27 5 0.0 0.0 0.00 0.00 0.00 77 1023.5
20260831154516 27 15 0.0 0.0 0.00 0.00 0.00 76 1023.5
20260831154405 27 317 0.0 0.0 0.00 0.00 0.00 74 1023.5
20260831154305 27 314 0.0 0.0 0.00 0.00 0.00 73 1023.5
20260831154206 27 290 0.0 0.0 0.00 0.00 0.00 74 1023.5
20260831154106 27 304 0.0 0.0 0.00 0.00 0.00 75 1023.5
20260831154006 27 304 0.0 0.0 0.00 0.00 0.00 73 1023.5
20260831153904 27 304 0.0 0.0 0.00 0.00 0.00 73 1023.3
20260831153803 27 305 0.0 0.0 0.00 0.00 0.00 73 1023.5
20260831153704 27 304 0.0 0.0 0.00 0.00 0.00 73 1023.6
20260831153602 27 305 0.0 0.0 0.00 0.00 0.00 73 1023.5
20260831153500 27 316 0.0 0.0 0.00 0.00 0.00 76 1023.6
20260831153400 27 10 0.0 0.0 0.00 0.00 0.00 75 1023.6
20260831153258 27 11 0.0 0.0 0.00 0.00 0.00 76 1023.6
20260831153155 27 11 0.0 0.0 0.00 0.00 0.00 74 1023.6
20260831153056 27 355 0.0 0.0 0.00 0.00 0.00 74 1023.6
20260831152955 27 337 0.0 0.0 0.00 0.00 0.00 75 1023.6
20260831152847 27 337 0.0 0.0 0.00 0.00 0.00 74 1023.6
20260831152747 27 318 0.0 0.0 0.00 0.00 0.00 75 1023.6
20260831152647 27 335 0.0 0.0 0.00 0.00 0.00 74 1023.6
20260831152545 27 332 0.0 0.0 0.00 0.00 0.00 74 1023.6
20260831152444 27 314 0.0 0.0 0.00 0.00 0.00 74 1023.6
20260831152343 27 314 0.0 0.0 0.00 0.00 0.00 74 1023.5
20260831152242 27 314 0.0 0.0 0.00 0.00 0.00 73 1023.5
20260831152141 27 320 0.0 0.0 0.00 0.00 0.00 77 1023.6
20260831152039 27 350 0.0 0.0 0.00 0.00 0.00 77 1023.6
20260831151938 27 38 0.0 0.0 0.00 0.00 0.00 75 1023.5
20260831151838 27 17 0.0 0.0 0.00 0.00 0.00 74 1023.5
20260831151736 27 5 0.0 0.0 0.00 0.00 0.00 76 1023.5
20260831151635 27 5 0.0 0.0 0.00 0.00 0.00 75 1023.6
20260831151535 27 5 0.0 0.0 0.00 0.00 0.00 75 1023.6
20260831151432 27 325 0.0 0.0 0.00 0.00 0.00 76 1023.6
20260831151325 27 320 0.0 0.0 0.00 0.00 0.00 75 1023.6
20260831151221 27 333 0.0 0.0 0.00 0.00 0.00 76 1023.6
20260831151122 27 342 0.0 0.0 0.00 0.00 0.00 75 1023.5
20260831151021 27 330 0.0 0.0 0.00 0.00 0.00 77 1023.6
20260831150921 27 332 0.0 0.0 0.00 0.00 0.00 76 1023.5
20260831150817 27 327 0.0 0.0 0.00 0.00 0.00 77 1023.5
20260831150715 27 335 0.0 0.0 0.00 0.00 0.00 76 1023.6
20260831150616 27 355 0.0 0.0 0.00 0.00 0.00 76 1023.5
20260831150516 27 10 0.0 0.0 0.00 0.00 0.00 77 1023.6
20260831150416 27 311 0.0 0.0 0.00 0.00 0.00 76 1023.5
20260831150313 27 332 0.0 0.0 0.00 0.00 0.00 78 1023.5
20260831150213 27 32 0.0 0.0 0.00 0.00 0.00 76 1023.5
20260831150111 27 34 0.0 0.0 0.00 0.00 0.00 77 1023.5
20260831150013 27 0 0.0 0.0 0.00 0.00 0.00 76 1023.5
20260831145910 27 5 0.0 0.0 0.00 0.00 0.00 76 1023.6
20260831145801 27 0 0.0 0.0 0.00 0.00 0.00 77 1023.6
20260831145700 27 25 0.0 0.0 0.00 0.00 0.00 78 1023.6
20260831145600 27 32 0.0 0.0 0.00 0.00 0.00 75 1023.5
20260831145459 27 5 0.0 0.0 0.00 0.00 0.00 75 1023.5
20260831145400 27 320 0.0 0.0 0.00 0.00 0.00 74 1023.5
20260831145257 27 320 0.0 0.0 0.00 0.00 0.00 77 1023.5
20260831145158 27 10 0.0 0.0 0.00 0.00 0.00 76 1023.5
20260831145055 27 5 0.0 0.0 0.00 0.00 0.00 77 1023.5
20260831144956 27 355 0.0 0.0 0.00 0.00 0.00 78 1023.5
20260831144853 27 5 0.0 0.0 0.00 0.00 0.00 78 1023.6
20260831144754 27 5 0.0 0.0 0.00 0.00 0.00 78 1023.5
20260831144652 27 5 0.0 0.0 0.00 0.00 0.00 77 1023.3
20260831144550 26 5 0.0 0.0 0.00 0.00 0.00 77 1023.5
20260831144449 26 5 0.0 0.0 0.00 0.00 0.00 77 1023.5
20260831144348 26 5 0.0 0.0 0.00 0.00 0.00 78 1023.5
20260831144239 26 10 0.0 0.0 0.00 0.00 0.00 78 1023.5
20260831144137 26 11 0.0 0.0 0.00 0.00 0.00 78 1023.3
20260831144037 26 9 0.0 0.0 0.00 0.00 0.00 78 1023.5
20260831143939 26 337 0.0 0.0 0.00 0.00 0.00 77 1023.5
20260831143838 26 15 0.0 0.0 0.00 0.00 0.00 78 1023.5
20260831143737 26 14 0.0 0.0 0.00 0.00 0.00 77 1023.3
20260831143636 26 15 0.0 0.0 0.00 0.00 0.00 78 1023.3
20260831143535 26 15 0.0 0.0 0.00 0.00 0.00 78 1023.5
20260831143434 26 15 0.0 0.0 0.00 0.00 0.00 78 1023.3
20260831143332 26 327 0.0 0.0 0.00 0.00 0.00 78 1023.3
20260831143229 26 327 0.0 0.0 0.00 0.00 0.00 78 1023.3
20260831143130 26 330 0.0 0.0 0.00 0.00 0.00 78 1023.3
20260831143027 26 331 0.0 0.0 0.00 0.00 0.00 77 1023.3
20260831142929 26 340 0.0 0.0 0.00 0.00 0.00 77 1023.3
20260831142825 26 341 0.0 0.0 0.00 0.00 0.00 77 1023.3
20260831142719 26 341 0.0 0.0 0.00 0.00 0.00 78 1023.2
20260831142620 26 336 0.0 0.0 0.00 0.00 0.00 80 1023.3
20260831142520 26 319 0.0 0.0 0.00 0.00 0.00 79 1023.3
20260831142417 26 302 0.0 0.0 0.00 0.00 0.00 79 1023.3
20260831142316 26 301 0.0 0.0 0.00 0.00 0.00 78 1023.5
20260831142216 26 301 0.0 0.0 0.00 0.00 0.00 80 1023.2
20260831142113 26 301 0.0 0.0 0.00 0.00 0.00 80 1023.3
20260831142013 26 301 0.0 0.0 0.00 0.00 0.00 78 1023.3
20260831141912 26 301 0.0 0.0 0.00 0.00 0.00 79 1023.3
20260831141810 26 300 0.0 0.0 0.00 0.00 0.00 79 1023.3
20260831141703 26 300 0.0 0.0 0.00 0.00 0.00 78 1023.3
20260831141604 26 298 0.0 0.0 0.00 0.00 0.00 78 1023.2
20260831141504 26 301 0.0 0.0 0.00 0.00 0.00 80 1023.2
20260831141403 26 308 0.0 0.0 0.00 0.00 0.00 79 1023.3
20260831141304 26 309 0.0 0.0 0.00 0.00 0.00 79 1023.2
20260831141157 26 308 0.0 0.0 0.00 0.00 0.00 79 1023.2
20260831141058 26 328 0.0 0.0 0.00 0.00 0.00 79 1023.3
20260831140955 26 327 0.0 0.0 0.00 0.00 0.00 80 1023.2
20260831140856 26 327 0.0 0.0 0.00 0.00 0.00 80 1023.2
20260831140754 26 327 0.0 0.0 0.00 0.00 0.00 79 1023.2
20260831140651 26 327 0.0 0.0 0.00 0.00 0.00 79 1023.2
20260831140551 26 327 0.0 0.0 0.00 0.00 0.00 80 1023.2
20260831140451 26 329 0.0 0.0 0.00 0.00 0.00 80 1023.2
20260831140350 26 329 0.0 0.0 0.00 0.00 0.00 80 1023.2
20260831140248 26 287 0.0 0.0 0.00 0.00 0.00 80 1023.2
20260831140143 26 271 0.0 0.0 0.00 0.00 0.00 79 1023.2
20260831140044 26 296 0.0 0.0 0.00 0.00 0.00 80 1023.2
20260831135943 26 344 0.0 0.0 0.00 0.00 0.00 80 1023.2
20260831135844 26 310 0.0 0.0 0.00 0.00 0.00 81 1023.2
20260831135742 25 310 0.0 0.0 0.00 0.00 0.00 82 1023.1
20260831135635 25 311 0.0 0.0 0.00 0.00 0.00 82 1023.1
20260831135535 25 311 0.0 0.0 0.00 0.00 0.00 82 1023.2
20260831135436 25 311 0.0 0.0 0.00 0.00 0.00 81 1023.2
20260831135334 25 311 0.0 0.0 0.00 0.00 0.00 82 1023.2
20260831135231 25 311 0.0 0.0 0.00 0.00 0.00 82 1023.2
20260831135132 25 311 0.0 0.0 0.00 0.00 0.00 83 1023.2
20260831135029 25 311 0.0 0.0 0.00 0.00 0.00 82 1023.2
20260831134928 25 311 0.0 0.0 0.00 0.00 0.00 81 1023.3
20260831134828 25 311 0.0 0.0 0.00 0.00 0.00 82 1023.3
20260831134725 25 311 0.0 0.0 0.00 0.00 0.00 82 1023.2
20260831134625 25 311 0.0 0.0 0.00 0.00 0.00 82 1023.2
20260831134523 25 311 0.0 0.0 0.00 0.00 0.00 83 1023.3
20260831134420 25 311 0.0 0.0 0.00 0.00 0.00 83 1023.3
20260831134322 25 311 0.0 0.0 0.00 0.00 0.00 83 1023.2
20260831134220 25 312 0.0 0.0 0.00 0.00 0.00 83 1023.3
20260831134109 25 312 0.0 0.0 0.00 0.00 0.00 83 1023.2
20260831134010 25 311 0.0 0.0 0.00 0.00 0.00 84 1023.2
20260831133910 25 312 0.0 0.0 0.00 0.00 0.00 83 1023.2
20260831133809 25 312 0.0 0.0 0.00 0.00 0.00 83 1023.3
20260831133710 25 311 0.0 0.0 0.00 0.00 0.00 83 1023.2
20260831133603 25 299 0.0 0.0 0.00 0.00 0.00 84 1023.3
20260831133503 25 300 0.0 0.0 0.00 0.00 0.00 84 1023.2
20260831133403 25 300 0.0 0.0 0.00 0.00 0.00 84 1023.3
20260831133303 25 288 0.0 0.0 0.00 0.00 0.00 84 1023.2
20260831133204 25 277 0.0 0.0 0.00 0.00 0.00 84 1023.3
20260831133059 25 278 0.0 0.0 0.00 0.00 0.00 85 1023.3
20260831132959 25 298 0.0 0.0 0.00 0.00 0.00 85 1023.3
20260831132858 25 297 0.0 0.0 0.00 0.00 0.00 85 1023.3
20260831132800 24 297 0.0 0.0 0.00 0.00 0.00 85 1023.3
20260831132658 24 296 0.0 0.0 0.00 0.00 0.00 85 1023.2
20260831132549 24 296 0.0 0.0 0.00 0.00 0.00 85 1023.3
20260831132449 24 296 0.0 0.0 0.00 0.00 0.00 85 1023.2
20260831132347 24 283 0.0 0.0 0.00 0.00 0.00 85 1023.2
20260831132247 24 296 0.0 0.0 0.00 0.00 0.00 85 1023.3
20260831132148 24 283 0.0 0.0 0.00 0.00 0.00 85 1023.3
20260831132048 24 281 0.0 0.0 0.00 0.00 0.00 85 1023.3
20260831131945 24 279 0.0 0.0 0.00 0.00 0.00 86 1023.3
20260831131843 24 281 0.0 0.0 0.00 0.00 0.00 86 1023.3
20260831131744 24 309 0.0 0.0 0.00 0.00 0.00 86 1023.5
20260831131642 24 309 0.0 0.0 0.00 0.00 0.00 86 1023.5
20260831131538 24 304 0.0 0.0 0.00 0.00 0.00 86 1023.3
20260831131438 24 295 0.0 0.0 0.00 0.00 0.00 86 1023.3
20260831131337 24 303 0.0 0.0 0.00 0.00 0.00 86 1023.3
20260831131238 24 316 0.0 0.0 0.00 0.00 0.00 86 1023.3
20260831131135 24 326 0.0 0.0 0.00 0.00 0.00 86 1023.3
20260831131029 24 286 0.0 0.0 0.00 0.00 0.00 86 1023.2
20260831130929 24 286 0.0 0.0 0.00 0.00 0.00 87 1023.2
20260831130828 24 287 0.0 0.0 0.00 0.00 0.00 87 1023.2
20260831130728 23 287 0.0 0.0 0.00 0.00 0.00 86 1023.2
20260831130626 23 287 0.0 0.0 0.00 0.00 0.00 86 1023.2
20260831130521 23 286 0.0 0.0 0.00 0.00 0.00 87 1023.3
20260831130420 23 286 0.0 0.0 0.00 0.00 0.00 87 1023.2
20260831130321 23 285 0.0 0.0 0.00 0.00 0.00 87 1023.2
20260831130222 23 285 0.0 0.0 0.00 0.00 0.00 87 1023.2
20260831130120 23 285 0.0 0.0 0.00 0.00 0.00 87 1023.2
20260831130016 23 285 0.0 0.0 0.00 0.00 0.00 87 1023.3
20260831125912 23 285 0.0 0.0 0.00 0.00 0.00 88 1023.3
20260831125814 23 327 0.0 0.0 0.00 0.00 0.00 88 1023.2
20260831125714 23 292 0.0 0.0 0.00 0.00 0.00 87 1023.2
20260831125614 23 292 0.0 0.0 0.00 0.00 0.00 87 1023.2
20260831125506 23 292 0.0 0.0 0.00 0.00 0.00 87 1023.2
20260831125403 23 290 0.0 0.0 0.00 0.00 0.00 87 1023.2
20260831125306 23 290 0.0 0.0 0.00 0.00 0.00 87 1023.1
20260831125203 23 292 0.0 0.0 0.00 0.00 0.00 87 1023.2
20260831125104 23 292 0.0 0.0 0.00 0.00 0.00 87 1023.2
20260831124959 23 257 0.0 0.0 0.00 0.00 0.00 88 1023.1
20260831124858 23 311 0.0 0.0 0.00 0.00 0.00 88 1023.2
20260831124800 23 315 0.0 0.0 0.00 0.00 0.00 88 1023.2
20260831124659 23 319 0.0 0.0 0.00 0.00 0.00 88 1023.1
20260831124557 23 320 0.0 0.0 0.00 0.00 0.00 88 1023.3
20260831124458 23 315 0.0 0.0 0.00 0.00 0.00 89 1023.1
20260831124356 23 317 0.0 0.0 0.00 0.00 0.00 88 1023.2
20260831124255 23 317 0.0 0.0 0.00 0.00 0.00 88 1023.2
20260831124153 23 315 0.0 0.0 0.00 0.00 0.00 88 1023.3
20260831124051 23 355 0.0 0.0 0.00 0.00 0.00 88 1023.2
20260831123943 23 300 0.0 0.0 0.00 0.00 0.00 88 1023.2
20260831123842 23 248 0.0 0.0 0.00 0.00 0.00 88 1023.2
20260831123744 23 300 0.0 0.0 0.00 0.00 0.00 88 1023.2
20260831123642 23 301 0.0 0.0 0.00 0.00 0.00 88 1023.2
20260831123542 23 279 0.0 0.0 0.00 0.00 0.00 88 1023.2
20260831123438 23 300 0.0 0.0 0.00 0.00 0.00 88 1023.1
20260831123338 23 270 0.0 0.0 0.00 0.00 0.00 89 1023.1
20260831123236 23 279 0.0 0.0 0.00 0.00 0.00 89 1023.0
20260831123138 23 279 0.0 0.0 0.00 0.00 0.00 89 1023.0
20260831123036 23 279 0.0 0.0 0.00 0.00 0.00 89 1023.0
20260831122933 23 303 0.0 0.0 0.00 0.00 0.00 89 1023.0
20260831122833 22 280 0.0 0.0 0.00 0.00 0.00 89 1023.0
20260831122732 22 284 0.0 0.0 0.00 0.00 0.00 89 1022.9
20260831122632 22 281 0.0 0.0 0.00 0.00 0.00 89 1023.0
20260831122529 22 282 0.0 0.0 0.00 0.00 0.00 89 1023.0
20260831122422 22 290 0.0 0.0 0.00 0.00 0.00 89 1023.0
20260831122320 22 281 0.0 0.0 0.00 0.00 0.00 89 1023.0
20260831122219 22 290 0.0 0.0 0.00 0.00 0.00 89 1023.0
20260831122119 22 296 0.0 0.0 0.00 0.00 0.00 89 1023.0
20260831122019 22 276 0.0 0.0 0.00 0.00 0.00 89 1023.0
20260831121915 22 276 0.0 0.0 0.00 0.00 0.00 89 1022.9
20260831121813 22 276 0.0 0.0 0.00 0.00 0.00 89 1022.9
20260831121714 22 276 0.0 0.0 0.00 0.00 0.00 89 1022.9
20260831121612 22 274 0.0 0.0 0.00 0.00 0.00 90 1023.0
20260831121514 22 272 0.0 0.0 0.00 0.00 0.00 90 1022.9
20260831121406 22 271 0.0 0.0 0.00 0.00 0.00 90 1023.0
20260831121308 22 270 0.0 0.0 0.00 0.00 0.00 90 1022.9
20260831121208 22 295 0.0 0.0 0.00 0.00 0.00 90 1022.9
20260831121108 22 301 0.0 0.0 0.00 0.00 0.00 90 1022.9
20260831121007 22 315 0.0 0.0 0.00 0.00 0.00 90 1022.9
20260831120859 22 319 0.0 0.0 0.00 0.00 0.00 90 1022.8
20260831120759 22 295 0.0 0.0 0.00 0.00 0.00 90 1022.8
20260831120659 22 277 0.0 0.0 0.00 0.00 0.00 90 1022.8
20260831120600 22 290 0.0 0.0 0.00 0.00 0.00 90 1022.8
20260831120457 22 287 0.0 0.0 0.00 0.00 0.00 90 1022.7
20260831120356 22 264 0.0 0.0 0.00 0.00 0.00 91 1022.9
20260831120256 22 300 0.0 0.0 0.00 0.00 0.00 91 1022.8
20260831120152 22 302 0.0 0.0 0.00 0.00 0.00 91 1022.9
20260831120054 22 300 0.0 0.0 0.00 0.00 0.00 91 1022.8
20260831115952 22 296 0.0 0.0 0.00 0.00 0.00 91 1022.9
20260831115852 22 296 0.0 0.0 0.00 0.00 0.00 91 1022.8
20260831115749 22 296 0.0 0.0 0.00 0.00 0.00 91 1022.8
20260831115649 22 269 0.0 0.0 0.00 0.00 0.00 91 1022.8
20260831115548 22 286 0.0 0.0 0.00 0.00 0.00 91 1022.9
20260831115446 22 279 0.0 0.0 0.00 0.00 0.00 91 1022.8
20260831115340 22 280 0.0 0.0 0.00 0.00 0.00 91 1022.8
20260831115239 22 286 0.0 0.0 0.00 0.00 0.00 91 1022.8
20260831115137 22 277 0.0 0.0 0.00 0.00 0.00 91 1022.8
20260831115038 21 238 0.0 0.0 0.00 0.00 0.00 92 1022.7
20260831114935 21 325 0.0 0.0 0.00 0.00 0.00 92 1022.8
20260831114830 21 294 0.0 0.0 0.00 0.00 0.00 92 1022.8
20260831114731 21 299 0.0 0.0 0.00 0.00 0.00 92 1022.8
20260831114631 21 299 0.0 0.0 0.00 0.00 0.00 92 1022.7
20260831114532 21 299 0.0 0.0 0.00 0.00 0.00 92 1022.8
20260831114429 21 299 0.0 0.0 0.00 0.00 0.00 92 1022.8
20260831114329 21 294 0.0 0.0 0.00 0.00 0.00 92 1022.8
20260831114228 21 295 0.0 0.0 0.00 0.00 0.00 92 1022.8
20260831114127 21 295 0.0 0.0 0.00 0.00 0.00 92 1022.8
20260831114026 21 292 0.0 0.0 0.00 0.00 0.00 92 1022.8
20260831113924 21 292 0.0 0.0 0.00 0.00 0.00 92 1022.7
20260831113818 21 291 0.0 0.0 0.00 0.00 0.00 92 1022.8
20260831113717 21 301 0.0 0.0 0.00 0.00 0.00 92 1022.8
20260831113616 21 248 0.0 0.0 0.00 0.00 0.00 93 1022.8
20260831113515 21 249 0.0 0.0 0.00 0.00 0.00 93 1022.8
20260831113413 21 260 0.0 0.0 0.00 0.00 0.00 93 1022.7
20260831113308 21 259 0.0 0.0 0.00 0.00 0.00 93 1022.7
20260831113206 21 15 0.0 0.0 0.00 0.00 0.00 93 1022.8
20260831113107 21 15 0.0 0.0 0.00 0.00 0.00 93 1022.8
20260831113006 21 10 0.0 0.0 0.00 0.00 0.00 93 1022.8
20260831112908 21 348 0.0 0.0 0.00 0.00 0.00 93 1022.8
20260831112802 21 342 0.0 0.0 0.00 0.00 0.00 93 1022.8
20260831112700 21 327 0.0 0.0 0.00 0.00 0.00 93 1022.8
20260831112602 21 325 0.0 0.0 0.00 0.00 0.00 93 1022.8
20260831112500 21 323 0.0 0.0 0.00 0.00 0.00 93 1022.8
20260831112401 21 321 0.0 0.0 0.00 0.00 0.00 93 1022.9
20260831112253 21 0 0.0 0.0 0.00 0.00 0.00 93 1022.8
20260831112152 21 226 0.0 0.0 0.00 0.00 0.00 93 1022.8
20260831112051 21 236 0.0 0.0 0.00 0.00 0.00 93 1022.8
20260831111951 21 277 0.0 0.0 0.00 0.00 0.00 93 1022.7
20260831111853 21 279 0.0 0.0 0.00 0.00 0.00 93 1022.8
20260831111747 21 280 0.0 0.0 0.00 0.00 0.00 93 1022.8
20260831111647 21 279 0.0 0.0 0.00 0.00 0.00 93 1022.7
20260831111548 21 280 0.0 0.0 0.00 0.00 0.00 93 1022.7
20260831111446 21 279 0.0 0.0 0.00 0.00 0.00 93 1022.7
20260831111345 21 278 0.0 0.0 0.00 0.00 0.00 93 1022.7
20260831111243 21 255 0.0 0.0 0.00 0.00 0.00 93 1022.7
20260831111143 21 238 0.0 0.0 0.00 0.00 0.00 93 1022.7
20260831111043 21 246 0.0 0.0 0.00 0.00 0.00 93 1022.7
20260831110942 21 246 0.0 0.0 0.00 0.00 0.00 93 1022.7
20260831110840 21 245 0.0 0.0 0.00 0.00 0.00 93 1022.6
20260831110734 21 246 0.0 0.0 0.00 0.00 0.00 93 1022.6
20260831110633 21 163 0.0 0.0 0.00 0.00 0.00 93 1022.6
20260831110534 21 163 0.0 0.0 0.00 0.00 0.00 93 1022.6
20260831110431 21 163 0.0 0.0 0.00 0.00 0.00 93 1022.5
20260831110330 21 163 0.0 0.0 0.00 0.00 0.00 93 1022.6
20260831110230 21 163 0.0 0.0 0.00 0.00 0.00 93 1022.5
20260831110127 21 163 0.0 0.0 0.00 0.00 0.00 93 1022.6
20260831110028 21 163 0.0 0.0 0.00 0.00 0.00 93 1022.5
20260831105925 21 164 0.0 0.0 0.00 0.00 0.00 93 1022.5
20260831105823 21 165 0.0 0.0 0.00 0.00 0.00 93 1022.5
20260831105720 21 165 0.0 0.0 0.00 0.00 0.00 93 1022.5
20260831105617 21 165 0.0 0.0 0.00 0.00 0.00 93 1022.5
20260831105518 21 182 0.0 0.0 0.00 0.00 0.00 93 1022.5
20260831105418 21 183 0.0 0.0 0.00 0.00 0.00 93 1022.4
20260831105318 21 182 0.0 0.0 0.00 0.00 0.00 93 1022.5
20260831105210 21 182 0.0 0.0 0.00 0.00 0.00 93 1022.5
20260831105107 21 183 0.0 0.0 0.00 0.00 0.00 93 1022.5
20260831105007 21 183 0.0 0.0 0.00 0.00 0.00 93 1022.4
20260831104907 21 183 0.0 0.0 0.00 0.00 0.00 93 1022.5
20260831104808 21 183 0.0 0.0 0.00 0.00 0.00 93 1022.5
20260831104703 21 183 0.0 0.0 0.00 0.00 0.00 93 1022.4
20260831104600 21 182 0.0 0.0 0.00 0.00 0.00 93 1022.5
20260831104501 21 182 0.0 0.0 0.00 0.00 0.00 93 1022.4
20260831104401 21 182 0.0 0.0 0.00 0.00 0.00 93 1022.4
20260831104302 21 182 0.0 0.0 0.00 0.00 0.00 93 1022.4
20260831104158 21 182 0.0 0.0 0.00 0.00 0.00 93 1022.4
20260831104056 21 183 0.0 0.0 0.00 0.00 0.00 93 1022.4
20260831103957 21 185 0.0 0.0 0.00 0.00 0.00 93 1022.4
20260831103858 21 173 0.0 0.0 0.00 0.00 0.00 93 1022.4
20260831103755 21 173 0.0 0.0 0.00 0.00 0.00 93 1022.4
20260831103649 21 181 0.0 0.0 0.00 0.00 0.00 93 1022.3
20260831103549 21 181 0.0 0.0 0.00 0.00 0.00 93 1022.3
20260831103448 21 182 0.0 0.0 0.00 0.00 0.00 93 1022.3
20260831103348 21 181 0.0 0.0 0.00 0.00 0.00 93 1022.3
20260831103246 21 182 0.0 0.0 0.00 0.00 0.00 93 1022.3
20260831103142 21 182 0.0 0.0 0.00 0.00 0.00 93 1022.3
20260831103044 21 181 0.0 0.0 0.00 0.00 0.00 93 1022.2
20260831102943 21 181 0.0 0.0 0.00 0.00 0.00 93 1022.3
20260831102842 21 181 0.0 0.0 0.00 0.00 0.00 93 1022.2
20260831102739 21 182 0.0 0.0 0.00 0.00 0.00 93 1022.2
20260831102636 21 182 0.0 0.0 0.00 0.00 0.00 93 1022.2
20260831102533 21 182 0.0 0.0 0.00 0.00 0.00 93 1022.2
20260831102434 20 183 0.0 0.0 0.00 0.00 0.00 93 1022.2
20260831102334 21 181 0.0 0.0 0.00 0.00 0.00 93 1022.2
20260831102234 20 182 0.0 0.0 0.00 0.00 0.00 93 1022.2
20260831102128 20 182 0.0 0.0 0.00 0.00 0.00 93 1022.2
20260831102027 20 182 0.0 0.0 0.00 0.00 0.00 93 1022.2
20260831101926 20 183 0.0 0.0 0.00 0.00 0.00 93 1022.2
20260831101826 20 182 0.0 0.0 0.00 0.00 0.00 93 1022.2
20260831101724 20 182 0.0 0.0 0.00 0.00 0.00 93 1022.3
20260831101622 20 185 0.0 0.0 0.00 0.00 0.00 93 1022.3
20260831101521 20 185 0.0 0.0 0.00 0.00 0.00 93 1022.2
20260831101422 20 184 0.0 0.0 0.00 0.00 0.00 93 1022.1
20260831101320 20 184 0.0 0.0 0.00 0.00 0.00 93 1022.2
20260831101217 20 184 0.0 0.0 0.00 0.00 0.00 93 1022.2
20260831101118 20 184 0.0 0.0 0.00 0.00 0.00 93 1022.3
20260831101015 20 184 0.0 0.0 0.00 0.00 0.00 93 1022.2
20260831100915 20 184 0.0 0.0 0.00 0.00 0.00 93 1022.2
20260831100813 20 184 0.0 0.0 0.00 0.00 0.00 93 1022.2
20260831100712 20 184 0.0 0.0 0.00 0.00 0.00 93 1022.1
20260831100601 20 184 0.0 0.0 0.00 0.00 0.00 93 1022.2
20260831100501 20 188 0.0 0.0 0.00 0.00 0.00 93 1022.2
20260831100402 20 188 0.0 0.0 0.00 0.00 0.00 93 1022.1
20260831100302 20 188 0.0 0.0 0.00 0.00 0.00 93 1022.1
20260831100201 20 188 0.0 0.0 0.00 0.00 0.00 93 1022.1
20260831100059 20 188 0.0 0.0 0.00 0.00 0.00 93 1022.2
20260831095959 20 188 0.0 0.0 0.00 0.00 0.00 93 1022.1
20260831095858 20 188 0.0 0.0 0.00 0.00 0.00 93 1022.1
20260831095757 20 188 0.0 0.0 0.00 0.00 0.00 93 1022.1
20260831095656 20 188 0.0 0.0 0.00 0.00 0.00 93 1022.1
20260831095554 20 188 0.0 0.0 0.00 0.00 0.00 93 1022.0
20260831095454 20 188 0.0 0.0 0.00 0.00 0.00 93 1022.0
20260831095352 20 188 0.0 0.0 0.00 0.00 0.00 93 1022.0
20260831095252 20 188 0.0 0.0 0.00 0.00 0.00 93 1022.0
20260831095150 20 188 0.0 0.0 0.00 0.00 0.00 93 1022.1
20260831095041 20 189 0.0 0.0 0.00 0.00 0.00 93 1022.0
20260831094939 20 188 0.0 0.0 0.00 0.00 0.00 93 1021.9
20260831094840 20 189 0.0 0.0 0.00 0.00 0.00 93 1022.0
20260831094739 20 189 0.0 0.0 0.00 0.00 0.00 93 1022.0
20260831094639 20 188 0.0 0.0 0.00 0.00 0.00 93 1021.9
20260831094540 20 189 0.0 0.0 0.00 0.00 0.00 93 1022.0
20260831094438 20 189 0.0 0.0 0.00 0.00 0.00 93 1022.0
20260831094337 20 188 0.0 0.0 0.00 0.00 0.00 93 1021.9
20260831094236 20 188 0.0 0.0 0.00 0.00 0.00 93 1021.9
20260831094134 20 188 0.0 0.0 0.00 0.00 0.00 93 1021.9
20260831094029 20 188 0.0 0.0 0.00 0.00 0.00 93 1021.9
20260831093926 20 188 0.0 0.0 0.00 0.00 0.00 93 1021.9
20260831093827 20 189 0.0 0.0 0.00 0.00 0.00 93 1021.9
20260831093725 20 188 0.0 0.0 0.00 0.00 0.00 93 1021.9
20260831093626 20 189 0.0 0.0 0.00 0.00 0.00 93 1021.7
20260831093522 20 188 0.0 0.0 0.00 0.00 0.00 93 1021.9
20260831093418 20 188 0.0 0.0 0.00 0.00 0.00 93 1022.0
20260831093320 20 188 0.0 0.0 0.00 0.00 0.00 93 1022.0
20260831093218 20 189 0.0 0.0 0.00 0.00 0.00 93 1022.0
20260831093116 20 190 0.0 0.0 0.00 0.00 0.00 93 1022.0
20260831093012 20 190 0.0 0.0 0.00 0.00 0.00 93 1022.0
20260831092908 20 189 0.0 0.0 0.00 0.00 0.00 93 1022.0
20260831092810 20 191 0.0 0.0 0.00 0.00 0.00 93 1022.0
20260831092709 20 191 0.0 0.0 0.00 0.00 0.00 93 1022.0
20260831092610 20 191 0.0 0.0 0.00 0.00 0.00 93 1022.0
20260831092503 20 192 0.0 0.0 0.00 0.00 0.00 93 1022.0
20260831092402 20 192 0.0 0.0 0.00 0.00 0.00 93 1021.9
20260831092306 20 191 0.0 0.0 0.00 0.00 0.00 93 1022.0
20260831092204 20 192 0.0 0.0 0.00 0.00 0.00 93 1021.9
20260831092104 20 192 0.0 0.0 0.00 0.00 0.00 93 1021.9
20260831091956 20 192 0.0 0.0 0.00 0.00 0.00 93 1021.9
20260831091858 20 192 0.0 0.0 0.00 0.00 0.00 93 1021.9
20260831091758 20 191 0.0 0.0 0.00 0.00 0.00 93 1021.9
20260831091656 20 192 0.0 0.0 0.00 0.00 0.00 93 1022.0
20260831091553 20 192 0.0 0.0 0.00 0.00 0.00 93 1022.0
20260831091453 20 191 0.0 0.0 0.00 0.00 0.00 93 1022.0
20260831091352 20 192 0.0 0.0 0.00 0.00 0.00 93 1022.0
20260831091250 20 192 0.0 0.0 0.00 0.00 0.00 93 1022.0
20260831091150 20 192 0.0 0.0 0.00 0.00 0.00 93 1022.0
20260831091048 20 192 0.0 0.0 0.00 0.00 0.00 93 1022.1
20260831090942 20 192 0.0 0.0 0.00 0.00 0.00 92 1021.9
20260831090840 20 192 0.0 0.0 0.00 0.00 0.00 92 1022.1
20260831090740 20 192 0.0 0.0 0.00 0.00 0.00 92 1021.9
20260831090639 20 192 0.0 0.0 0.00 0.00 0.00 92 1022.0
20260831090539 20 192 0.0 0.0 0.00 0.00 0.00 92 1021.9
20260831090439 20 192 0.0 0.0 0.00 0.00 0.00 92 1021.9
20260831090338 20 192 0.0 0.0 0.00 0.00 0.00 92 1022.0
20260831090239 20 192 0.0 0.0 0.00 0.00 0.00 92 1022.0
20260831090138 20 192 0.0 0.0 0.00 0.00 0.00 92 1022.0
20260831090036 20 192 0.0 0.0 0.00 0.00 0.00 92 1022.0
20260831085937 20 192 0.0 0.0 0.00 0.00 0.00 92 1022.0
20260831085837 20 192 0.0 0.0 0.00 0.00 0.00 92 1022.0
20260831085736 20 192 0.0 0.0 0.00 0.00 0.00 92 1022.0
20260831085638 20 192 0.0 0.0 0.00 0.00 0.00 92 1022.1
20260831085537 20 191 0.0 0.0 0.00 0.00 0.00 92 1022.1
20260831085438 20 192 0.0 0.0 0.00 0.00 0.00 92 1022.0
20260831085336 20 192 0.0 0.0 0.00 0.00 0.00 92 1022.1
20260831085238 20 192 0.0 0.0 0.00 0.00 0.00 92 1022.1
20260831085136 20 192 0.0 0.0 0.00 0.00 0.00 92 1022.1
20260831085037 20 192 0.0 0.0 0.00 0.00 0.00 92 1022.1
20260831084936 20 191 0.0 0.0 0.00 0.00 0.00 92 1022.1
20260831084836 20 192 0.0 0.0 0.00 0.00 0.00 92 1022.1
20260831084737 20 192 0.0 0.0 0.00 0.00 0.00 92 1022.1
20260831084636 20 191 0.0 0.0 0.00 0.00 0.00 92 1022.0
20260831084538 20 191 0.0 0.0 0.00 0.00 0.00 92 1022.0
20260831084436 20 191 0.0 0.0 0.00 0.00 0.00 91 1022.1
20260831084336 20 191 0.0 0.0 0.00 0.00 0.00 91 1022.0
20260831084238 20 190 0.0 0.0 0.00 0.00 0.00 91 1022.0
20260831084137 20 191 0.0 0.0 0.00 0.00 0.00 91 1022.1
20260831084038 20 192 0.0 0.0 0.00 0.00 0.00 91 1022.0
20260831083938 20 192 0.0 0.0 0.00 0.00 0.00 91 1022.0
20260831083837 20 191 0.0 0.0 0.00 0.00 0.00 91 1022.0
20260831083736 20 192 0.0 0.0 0.00 0.00 0.00 91 1022.0
20260831083638 20 192 0.0 0.0 0.00 0.00 0.00 91 1021.9
20260831083536 20 192 0.0 0.0 0.00 0.00 0.00 91 1022.0
20260831083436 20 192 0.0 0.0 0.00 0.00 0.00 91 1022.0
20260831083337 20 192 0.0 0.0 0.00 0.00 0.00 91 1021.9
20260831083238 20 193 0.0 0.0 0.00 0.00 0.00 91 1021.9
20260831083133 20 193 0.0 0.0 0.00 0.00 0.00 90 1022.0
20260831083033 20 193 0.0 0.0 0.00 0.00 0.00 90 1021.9
20260831082932 20 193 0.0 0.0 0.00 0.00 0.00 90 1021.9
20260831082833 21 194 0.0 0.0 0.00 0.00 0.00 90 1022.0
20260831082734 21 193 0.0 0.0 0.00 0.00 0.00 90 1021.9
20260831082634 21 193 0.0 0.0 0.00 0.00 0.00 90 1021.9
20260831082533 21 195 0.0 0.0 0.00 0.00 0.00 90 1021.9
20260831082433 21 195 0.0 0.0 0.00 0.00 0.00 90 1021.9
20260831082333 21 196 0.0 0.0 0.00 0.00 0.00 90 1021.9
20260831082232 21 196 0.0 0.0 0.00 0.00 0.00 90 1021.9
20260831082133 21 196 0.0 0.0 0.00 0.00 0.00 90 1021.9
20260831082033 21 196 0.0 0.0 0.00 0.00 0.00 91 1021.7
20260831081934 21 196 0.0 0.0 0.00 0.00 0.00 90 1021.9
20260831081834 21 196 0.0 0.0 0.00 0.00 0.00 90 1021.7
20260831081733 21 196 0.0 0.0 0.00 0.00 0.00 90 1021.9
20260831081633 21 196 0.0 0.0 0.00 0.00 0.00 90 1021.7
20260831081532 21 200 0.0 0.0 0.00 0.00 0.00 91 1021.7
20260831081433 21 205 0.0 0.0 0.00 0.00 0.00 90 1021.7
20260831081332 21 204 0.0 0.0 0.00 0.00 0.00 90 1021.7
20260831081233 21 205 0.0 0.0 0.00 0.00 0.00 90 1021.9
20260831081133 21 205 0.0 0.0 0.00 0.00 0.00 90 1021.7
20260831081034 21 205 0.0 0.0 0.00 0.00 0.00 90 1021.9
20260831080932 21 205 0.0 0.0 0.00 0.00 0.00 90 1021.6
20260831080834 21 219 0.0 0.0 0.00 0.00 0.00 91 1021.7
20260831080732 21 219 0.0 0.0 0.00 0.00 0.00 90 1021.7
20260831080634 21 219 0.0 0.0 0.00 0.00 0.00 90 1021.9
20260831080533 21 222 0.0 0.0 0.00 0.00 0.00 90 1021.9
20260831080432 21 223 0.0 0.0 0.00 0.00 0.00 90 1021.9
20260831080333 21 223 0.0 0.0 0.00 0.00 0.00 90 1021.6
20260831080232 21 223 0.0 0.0 0.00 0.00 0.00 90 1021.7
20260831080133 21 219 0.0 0.0 0.00 0.00 0.00 90 1021.9
20260831080033 21 209 0.0 0.0 0.00 0.00 0.00 90 1021.9
20260831075934 21 208 0.0 0.0 0.00 0.00 0.00 90 1021.7
20260831075832 21 225 0.0 0.0 0.00 0.00 0.00 90 1021.9
20260831075732 21 178 0.0 0.0 0.00 0.00 0.00 90 1021.7
20260831075632 21 178 0.0 0.0 0.00 0.00 0.00 91 1021.7
20260831075534 21 177 0.0 0.0 0.00 0.00 0.00 91 1021.7
20260831075432 21 178 0.0 0.0 0.00 0.00 0.00 91 1021.7
20260831075332 21 190 0.0 0.0 0.00 0.00 0.00 91 1021.7
20260831075233 20 190 0.0 0.0 0.00 0.00 0.00 91 1021.7
20260831075133 20 214 0.0 0.0 0.00 0.00 0.00 91 1021.9
20260831075032 20 218 0.0 0.0 0.00 0.00 0.00 91 1021.7
20260831074934 20 218 0.0 0.0 0.00 0.00 0.00 91 1021.7
20260831074832 20 218 0.0 0.0 0.00 0.00 0.00 91 1021.7
20260831074733 20 173 0.0 0.0 0.00 0.00 0.00 91 1021.9
20260831074632 20 173 0.0 0.0 0.00 0.00 0.00 91 1021.9
20260831074533 20 173 0.0 0.0 0.00 0.00 0.00 91 1021.9
20260831074430 20 177 0.0 0.0 0.00 0.00 0.00 91 1021.9
20260831074328 20 177 0.0 0.0 0.00 0.00 0.00 91 1022.0
20260831074230 20 217 0.0 0.0 0.00 0.00 0.00 91 1021.9
20260831074128 20 217 0.0 0.0 0.00 0.00 0.00 91 1022.0
20260831074030 20 215 0.0 0.0 0.00 0.00 0.00 91 1022.0
20260831073928 20 215 0.0 0.0 0.00 0.00 0.00 91 1021.9
20260831073829 20 221 0.0 0.0 0.00 0.00 0.00 91 1022.0
20260831073729 20 223 0.0 0.0 0.00 0.00 0.00 91 1022.0
20260831073629 20 223 0.0 0.0 0.00 0.00 0.00 91 1021.9
20260831073529 20 223 0.0 0.0 0.00 0.00 0.00 91 1022.0
20260831073430 20 210 0.0 0.0 0.00 0.00 0.00 91 1021.9
20260831073329 20 210 0.0 0.0 0.00 0.00 0.00 91 1021.9
20260831073228 20 210 0.0 0.0 0.00 0.00 0.00 91 1021.9
20260831073128 20 211 0.0 0.0 0.00 0.00 0.00 91 1021.9
20260831073028 20 241 0.0 0.0 0.00 0.00 0.00 92 1021.9
20260831072930 20 241 0.0 0.0 0.00 0.00 0.00 92 1021.9
20260831072828 20 240 0.0 0.0 0.00 0.00 0.00 92 1021.9
20260831072729 20 240 0.0 0.0 0.00 0.00 0.00 92 1022.0
20260831072628 20 73 0.0 0.0 0.00 0.00 0.00 92 1022.0
20260831072529 20 94 0.0 0.0 0.00 0.00 0.00 91 1022.0
20260831072429 20 94 0.0 0.0 0.00 0.00 0.00 92 1022.0
20260831072328 20 93 0.0 0.0 0.00 0.00 0.00 92 1021.9
20260831072230 20 93 0.0 0.0 0.00 0.00 0.00 92 1022.0
20260831072129 20 93 0.0 0.0 0.00 0.00 0.00 92 1022.0
20260831072030 20 93 0.0 0.0 0.00 0.00 0.00 92 1022.0
20260831071930 20 93 0.0 0.0 0.00 0.00 0.00 92 1022.0
20260831071828 20 93 0.0 0.0 0.00 0.00 0.00 92 1021.9
20260831071729 20 93 0.0 0.0 0.00 0.00 0.00 92 1022.0
20260831071628 20 93 0.0 0.0 0.00 0.00 0.00 92 1022.0
20260831071530 20 93 0.0 0.0 0.00 0.00 0.00 92 1021.9
20260831071428 20 93 0.0 0.0 0.00 0.00 0.00 92 1021.9
20260831071330 20 93 0.0 0.0 0.00 0.00 0.00 91 1022.0
20260831071229 20 93 0.0 0.0 0.00 0.00 0.00 91 1022.0
20260831071124 20 93 0.0 0.0 0.00 0.00 0.00 91 1022.0
20260831071025 20 92 0.0 0.0 0.00 0.00 0.00 91 1021.9
20260831070924 20 92 0.0 0.0 0.00 0.00 0.00 91 1022.0
20260831070825 20 92 0.0 0.0 0.00 0.00 0.00 91 1022.0
20260831070724 20 93 0.0 0.0 0.00 0.00 0.00 91 1022.0
20260831070624 20 93 0.0 0.0 0.00 0.00 0.00 91 1021.9
20260831070524 20 93 0.0 0.0 0.00 0.00 0.00 91 1022.1
20260831070424 20 93 0.0 0.0 0.00 0.00 0.00 91 1022.0
20260831070324 20 93 0.0 0.0 0.00 0.00 0.00 91 1022.0
20260831070225 20 92 0.0 0.0 0.00 0.00 0.00 91 1022.1
20260831070124 20 92 0.0 0.0 0.00 0.00 0.00 91 1022.1
20260831070025 20 93 0.0 0.0 0.00 0.00 0.00 91 1022.1
20260831065926 20 92 0.0 0.0 0.00 0.00 0.00 91 1022.2
20260831065824 20 92 0.0 0.0 0.00 0.00 0.00 91 1022.2
20260831065725 20 93 0.0 0.0 0.00 0.00 0.00 91 1022.2
20260831065624 20 93 0.0 0.0 0.00 0.00 0.00 91 1022.2
20260831065526 20 92 0.0 0.0 0.00 0.00 0.00 91 1022.1
20260831065424 20 93 0.0 0.0 0.00 0.00 0.00 91 1022.1
20260831065324 20 157 0.0 0.0 0.00 0.00 0.00 91 1022.1
20260831065225 20 157 0.0 0.0 0.00 0.00 0.00 91 1022.3
20260831065125 20 157 0.0 0.0 0.00 0.00 0.00 91 1022.2
20260831065026 20 157 0.0 0.0 0.00 0.00 0.00 91 1022.3
20260831064924 20 157 0.0 0.0 0.00 0.00 0.00 91 1022.3
20260831064825 20 157 0.0 0.0 0.00 0.00 0.00 91 1022.2
20260831064724 20 158 0.0 0.0 0.00 0.00 0.00 91 1022.3
20260831064626 20 158 0.0 0.0 0.00 0.00 0.00 91 1022.2
20260831064516 21 157 0.0 0.0 0.00 0.00 0.00 91 1022.3
20260831064414 20 157 0.0 0.0 0.00 0.00 0.00 91 1022.3
20260831064314 21 158 0.0 0.0 0.00 0.00 0.00 91 1022.4
20260831064216 21 158 0.0 0.0 0.00 0.00 0.00 91 1022.4
20260831064114 21 157 0.0 0.0 0.00 0.00 0.00 91 1022.4
20260831064013 21 158 0.0 0.0 0.00 0.00 0.00 91 1022.3
20260831063912 21 158 0.0 0.0 0.00 0.00 0.00 91 1022.4
20260831063810 21 158 0.0 0.0 0.00 0.00 0.00 91 1022.4
20260831063710 21 158 0.0 0.0 0.00 0.00 0.00 91 1022.4
20260831063606 21 158 0.0 0.0 0.00 0.00 0.00 91 1022.4
20260831063502 21 158 0.0 0.0 0.00 0.00 0.00 91 1022.4
20260831063400 21 158 0.0 0.0 0.00 0.00 0.00 91 1022.4
20260831063301 21 158 0.0 0.0 0.00 0.00 0.00 91 1022.5
20260831063202 21 158 0.0 0.0 0.00 0.00 0.00 91 1022.5
20260831063100 21 157 0.0 0.0 0.00 0.00 0.00 91 1022.4
20260831062954 21 158 0.0 0.0 0.00 0.00 0.00 92 1022.4
20260831062851 21 158 0.0 0.0 0.00 0.00 0.00 91 1022.5
20260831062749 21 158 0.0 0.0 0.00 0.00 0.00 91 1022.4
20260831062650 21 158 0.0 0.0 0.00 0.00 0.00 92 1022.4
20260831062550 21 158 0.0 0.0 0.00 0.00 0.00 92 1022.4
20260831062451 21 158 0.0 0.0 0.00 0.00 0.00 92 1022.4
20260831062348 21 158 0.0 0.0 0.00 0.00 0.00 92 1022.4
20260831062248 21 158 0.0 0.0 0.00 0.00 0.00 92 1022.4
20260831062147 21 158 0.0 0.0 0.00 0.00 0.00 92 1022.4
20260831062045 21 158 0.0 0.0 0.00 0.00 0.00 92 1022.5
20260831061942 21 158 0.0 0.0 0.00 0.00 0.00 92 1022.4
20260831061843 21 158 0.0 0.0 0.00 0.00 0.00 92 1022.5
20260831061741 21 158 0.0 0.0 0.00 0.00 0.00 92 1022.4
20260831061640 21 158 0.0 0.0 0.00 0.00 0.00 92 1022.5
20260831061539 21 158 0.0 0.0 0.00 0.00 0.00 92 1022.6
20260831061430 21 157 0.0 0.0 0.00 0.00 0.00 92 1022.6
20260831061331 21 157 0.0 0.0 0.00 0.00 0.00 92 1022.6
20260831061231 21 158 0.0 0.0 0.00 0.00 0.00 92 1022.6
20260831061130 21 157 0.0 0.0 0.00 0.00 0.00 92 1022.6
20260831061029 21 157 0.0 0.0 0.00 0.00 0.00 92 1022.6
20260831060929 21 157 0.0 0.0 0.00 0.00 0.00 92 1022.6
20260831060827 21 157 0.0 0.0 0.00 0.00 0.00 92 1022.6
20260831060725 21 158 0.0 0.0 0.00 0.00 0.00 92 1022.7
20260831060624 21 157 0.0 0.0 0.00 0.00 0.00 92 1022.6
20260831060524 21 157 0.0 0.0 0.00 0.00 0.00 92 1022.7
20260831060425 21 157 0.0 0.0 0.00 0.00 0.00 91 1022.7
20260831060325 21 158 0.0 0.0 0.00 0.00 0.00 91 1022.6
20260831060221 21 158 0.0 0.0 0.00 0.00 0.00 91 1022.6
20260831060118 21 157 0.0 0.0 0.00 0.00 0.00 91 1022.6
20260831060016 21 158 0.0 0.0 0.00 0.00 0.00 91 1022.7
20260831055907 21 158 0.0 0.0 0.00 0.00 0.00 91 1022.8
20260831055806 21 158 0.0 0.0 0.00 0.00 0.00 91 1022.8
20260831055706 21 158 0.0 0.0 0.00 0.00 0.00 91 1022.7
20260831055607 21 157 0.0 0.0 0.00 0.00 0.00 91 1022.7
20260831055507 21 157 0.0 0.0 0.00 0.00 0.00 91 1022.6
20260831055402 21 157 0.0 0.0 0.00 0.00 0.00 91 1022.7
20260831055301 21 157 0.0 0.0 0.00 0.00 0.00 91 1022.7
20260831055201 21 157 0.0 0.0 0.00 0.00 0.00 91 1022.8
20260831055101 21 158 0.0 0.0 0.00 0.00 0.00 91 1022.7
20260831055001 21 157 0.0 0.0 0.00 0.00 0.00 91 1022.7
20260831054856 21 157 0.0 0.0 0.00 0.00 0.00 91 1022.7
20260831054755 21 157 0.0 0.0 0.00 0.00 0.00 91 1022.7
20260831054654 21 157 0.0 0.0 0.00 0.00 0.00 90 1022.8
20260831054556 21 157 0.0 0.0 0.00 0.00 0.00 90 1022.7
20260831054455 21 156 0.0 0.0 0.00 0.00 0.00 90 1022.7
20260831054348 21 157 0.0 0.0 0.00 0.00 0.00 90 1022.8
20260831054250 21 156 0.0 0.0 0.00 0.00 0.00 90 1022.7
20260831054148 21 157 0.0 0.0 0.00 0.00 0.00 90 1022.8
20260831054048 21 157 0.0 0.0 0.00 0.00 0.00 90 1022.7
20260831053944 21 157 0.0 0.0 0.00 0.00 0.00 90 1022.8
20260831053843 21 157 0.0 0.0 0.00 0.00 0.00 90 1022.8
20260831053742 21 157 0.0 0.0 0.00 0.00 0.00 90 1022.8
20260831053643 21 157 0.0 0.0 0.00 0.00 0.00 90 1022.8
20260831053543 21 156 0.0 0.0 0.00 0.00 0.00 90 1022.8
20260831053443 21 157 0.0 0.0 0.00 0.00 0.00 90 1022.8
20260831053335 21 157 0.0 0.0 0.00 0.00 0.00 90 1022.8
20260831053232 21 157 0.0 0.0 0.00 0.00 0.00 90 1022.8
20260831053132 21 156 0.0 0.0 0.00 0.00 0.00 89 1022.8
20260831053030 21 157 0.0 0.0 0.00 0.00 0.00 89 1022.9
20260831052929 21 157 0.0 0.0 0.00 0.00 0.00 89 1022.9
20260831052825 21 157 0.0 0.0 0.00 0.00 0.00 89 1022.8
20260831052722 21 154 0.0 0.0 0.00 0.00 0.00 89 1022.9
20260831052623 21 154 0.0 0.0 0.00 0.00 0.00 89 1022.8
20260831052521 21 153 0.0 0.0 0.00 0.00 0.00 89 1022.9
20260831052418 21 150 0.0 0.0 0.00 0.00 0.00 89 1022.9
20260831052316 21 151 0.0 0.0 0.00 0.00 0.00 89 1022.9
20260831052215 21 150 0.0 0.0 0.00 0.00 0.00 89 1022.8
20260831052116 21 149 0.0 0.0 0.00 0.00 0.00 89 1022.8
20260831052015 21 157 0.0 0.0 0.00 0.00 0.00 89 1022.8
20260831051913 21 146 0.0 0.0 0.00 0.00 0.00 89 1022.9
20260831051813 21 145 0.0 0.0 0.00 0.00 0.00 89 1022.8
20260831051711 21 143 0.0 0.0 0.00 0.00 0.00 89 1022.8
20260831051610 21 145 0.0 0.0 0.00 0.00 0.00 89 1022.9
20260831051507 21 146 0.0 0.0 0.00 0.00 0.00 89 1022.9
20260831051407 21 146 0.0 0.0 0.00 0.00 0.00 89 1022.8
20260831051256 21 142 0.0 0.0 0.00 0.00 0.00 89 1022.8
20260831051156 21 145 0.0 0.0 0.00 0.00 0.00 89 1022.8
20260831051058 21 144 0.0 0.0 0.00 0.00 0.00 89 1022.9
20260831050956 21 145 0.0 0.0 0.00 0.00 0.00 89 1022.9
20260831050856 21 143 0.0 0.0 0.00 0.00 0.00 89 1022.9
20260831050756 21 142 0.0 0.0 0.00 0.00 0.00 89 1022.9
20260831050655 21 142 0.0 0.0 0.00 0.00 0.00 89 1022.9
20260831050555 21 143 0.0 0.0 0.00 0.00 0.00 89 1022.8
20260831050452 21 144 0.0 0.0 0.00 0.00 0.00 89 1022.8
20260831050351 21 143 0.0 0.0 0.00 0.00 0.00 89 1022.9
20260831050245 21 143 0.0 0.0 0.00 0.00 0.00 89 1022.8
20260831050146 21 144 0.0 0.0 0.00 0.00 0.00 89 1022.8
20260831050045 21 145 0.0 0.0 0.00 0.00 0.00 89 1022.8
20260831045944 21 146 0.0 0.0 0.00 0.00 0.00 89 1022.9
20260831045845 21 146 0.0 0.0 0.00 0.00 0.00 89 1022.8
20260831045737 21 146 0.0 0.0 0.00 0.00 0.00 89 1022.9
20260831045635 21 146 0.0 0.0 0.00 0.00 0.00 89 1022.9
20260831045534 21 146 0.0 0.0 0.00 0.00 0.00 89 1022.9
20260831045434 21 147 0.0 0.0 0.00 0.00 0.00 89 1022.9
20260831045335 21 147 0.0 0.0 0.00 0.00 0.00 89 1022.9
20260831045232 21 146 0.0 0.0 0.00 0.00 0.00 89 1022.9
20260831045132 21 148 0.0 0.0 0.00 0.00 0.00 89 1022.9
20260831045033 21 148 0.0 0.0 0.00 0.00 0.00 89 1022.8
20260831044930 21 148 0.0 0.0 0.00 0.00 0.00 89 1022.8
20260831044828 21 148 0.0 0.0 0.00 0.00 0.00 89 1022.8
20260831044722 21 148 0.0 0.0 0.00 0.00 0.00 89 1022.8
20260831044622 21 149 0.0 0.0 0.00 0.00 0.00 89 1022.8
20260831044522 21 150 0.0 0.0 0.00 0.00 0.00 89 1022.9
20260831044423 21 148 0.0 0.0 0.00 0.00 0.00 89 1022.9
20260831044322 21 148 0.0 0.0 0.00 0.00 0.00 89 1022.8
20260831044215 21 146 0.0 0.0 0.00 0.00 0.00 89 1022.8
20260831044112 21 146 0.0 0.0 0.00 0.00 0.00 89 1022.8
20260831044011 21 146 0.0 0.0 0.00 0.00 0.00 89 1022.8
20260831043912 21 149 0.0 0.0 0.00 0.00 0.00 89 1022.8
20260831043813 21 148 0.0 0.0 0.00 0.00 0.00 89 1022.8
20260831043706 21 149 0.0 0.0 0.00 0.00 0.00 89 1022.9
20260831043606 21 146 0.0 0.0 0.00 0.00 0.00 89 1022.8
20260831043507 21 146 0.0 0.0 0.00 0.00 0.00 89 1022.8
20260831043405 21 150 0.0 0.0 0.00 0.00 0.00 89 1022.9
20260831043306 21 148 0.0 0.0 0.00 0.00 0.00 88 1022.9
20260831043200 21 147 0.0 0.0 0.00 0.00 0.00 88 1022.9
20260831043100 21 143 0.0 0.0 0.00 0.00 0.00 88 1023.0
20260831043001 21 150 0.0 0.0 0.00 0.00 0.00 88 1023.0
20260831042901 21 148 0.0 0.0 0.00 0.00 0.00 88 1022.9
20260831042800 21 147 0.0 0.0 0.00 0.00 0.00 88 1022.9
20260831042650 21 148 0.0 0.0 0.00 0.00 0.00 88 1022.8
20260831042551 21 149 0.0 0.0 0.00 0.00 0.00 88 1022.9
20260831042450 21 149 0.0 0.0 0.00 0.00 0.00 88 1022.9
20260831042351 21 148 0.0 0.0 0.00 0.00 0.00 88 1022.9
20260831042250 21 149 0.0 0.0 0.00 0.00 0.00 88 1022.9
20260831042144 21 148 0.0 0.0 0.00 0.00 0.00 88 1022.9
20260831042045 21 149 0.0 0.0 0.00 0.00 0.00 88 1022.9
20260831041945 21 150 0.0 0.0 0.00 0.00 0.00 88 1023.0
20260831041844 21 148 0.0 0.0 0.00 0.00 0.00 88 1022.8
20260831041744 21 148 0.0 0.0 0.00 0.00 0.00 88 1022.9
20260831041641 21 149 0.0 0.0 0.00 0.00 0.00 88 1022.9
20260831041541 21 150 0.0 0.0 0.00 0.00 0.00 88 1022.9
20260831041438 21 149 0.0 0.0 0.00 0.00 0.00 88 1022.9
20260831041340 21 150 0.0 0.0 0.00 0.00 0.00 87 1023.0
20260831041237 21 150 0.0 0.0 0.00 0.00 0.00 87 1022.9
20260831041130 21 150 0.0 0.0 0.00 0.00 0.00 87 1023.0
20260831041032 21 150 0.0 0.0 0.00 0.00 0.00 87 1023.0
20260831040928 21 150 0.0 0.0 0.00 0.00 0.00 87 1023.0
20260831040830 21 150 0.0 0.0 0.00 0.00 0.00 87 1022.9
20260831040726 21 149 0.0 0.0 0.00 0.00 0.00 87 1023.0
20260831040623 22 149 0.0 0.0 0.00 0.00 0.00 87 1023.0
20260831040520 22 150 0.0 0.0 0.00 0.00 0.00 87 1023.0
20260831040421 21 148 0.0 0.0 0.00 0.00 0.00 87 1022.9
20260831040320 22 149 0.0 0.0 0.00 0.00 0.00 87 1023.0
20260831040220 22 150 0.0 0.0 0.00 0.00 0.00 87 1023.0
20260831040121 22 148 0.0 0.0 0.00 0.00 0.00 87 1023.0
20260831040018 22 148 0.0 0.0 0.00 0.00 0.00 87 1023.0
20260831035917 22 149 0.0 0.0 0.00 0.00 0.00 87 1023.0
20260831035817 22 148 0.0 0.0 0.00 0.00 0.00 87 1023.0
20260831035715 22 150 0.0 0.0 0.00 0.00 0.00 87 1023.0
20260831035605 22 148 0.0 0.0 0.00 0.00 0.00 87 1023.1
20260831035505 22 148 0.0 0.0 0.00 0.00 0.00 87 1023.1
20260831035404 22 148 0.0 0.0 0.00 0.00 0.00 87 1023.1
20260831035306 22 148 0.0 0.0 0.00 0.00 0.00 87 1023.2
20260831035205 22 148 0.0 0.0 0.00 0.00 0.00 87 1023.1
20260831035102 22 148 0.0 0.0 0.00 0.00 0.00 87 1023.1
20260831035002 22 149 0.0 0.0 0.00 0.00 0.00 87 1023.0
20260831034901 22 148 0.0 0.0 0.00 0.00 0.00 87 1023.2
20260831034801 22 149 0.0 0.0 0.00 0.00 0.00 87 1023.1
20260831034659 22 148 0.0 0.0 0.00 0.00 0.00 87 1023.1
20260831034556 22 146 0.0 0.0 0.00 0.00 0.00 87 1023.2
20260831034457 22 148 0.0 0.0 0.00 0.00 0.00 87 1023.2
20260831034354 22 146 0.0 0.0 0.00 0.00 0.00 87 1023.2
20260831034255 22 148 0.0 0.0 0.00 0.00 0.00 87 1023.2
20260831034153 22 146 0.0 0.0 0.00 0.00 0.00 87 1023.2
20260831034054 22 144 0.0 0.0 0.00 0.00 0.00 87 1023.2
20260831033950 22 148 0.0 0.0 0.00 0.00 0.00 87 1023.2
20260831033852 22 144 0.0 0.0 0.00 0.00 0.00 87 1023.3
20260831033748 22 145 0.0 0.0 0.00 0.00 0.00 87 1023.2
20260831033649 22 147 0.0 0.0 0.00 0.00 0.00 87 1023.1
20260831033546 22 148 0.0 0.0 0.00 0.00 0.00 87 1023.2
20260831033444 22 148 0.0 0.0 0.00 0.00 0.00 87 1023.1
20260831033342 22 149 0.0 0.0 0.00 0.00 0.00 87 1023.2
20260831033237 22 146 0.0 0.0 0.00 0.00 0.00 87 1023.2
20260831033137 22 146 0.0 0.0 0.00 0.00 0.00 87 1023.2
20260831033034 22 147 0.0 0.0 0.00 0.00 0.00 87 1023.3
20260831032934 22 147 0.0 0.0 0.00 0.00 0.00 87 1023.3
20260831032832 22 146 0.0 0.0 0.00 0.00 0.00 87 1023.3
20260831032733 22 147 0.0 0.0 0.00 0.00 0.00 87 1023.5
20260831032631 22 146 0.0 0.0 0.00 0.00 0.00 87 1023.5
20260831032526 22 146 0.0 0.0 0.00 0.00 0.00 87 1023.6
20260831032426 22 148 0.0 0.0 0.00 0.00 0.00 87 1023.6
20260831032326 22 148 0.0 0.0 0.00 0.00 0.00 87 1023.5
20260831032223 22 147 0.0 0.0 0.00 0.00 0.00 87 1023.5
20260831032121 22 146 0.0 0.0 0.00 0.00 0.00 87 1023.3
20260831032017 22 145 0.0 0.0 0.00 0.00 0.00 87 1023.5
20260831031914 22 148 0.0 0.0 0.00 0.00 0.00 87 1023.5
20260831031815 22 148 0.0 0.0 0.00 0.00 0.00 87 1023.3
20260831031714 22 146 0.0 0.0 0.00 0.00 0.00 87 1023.5
20260831031614 22 146 0.0 0.0 0.00 0.00 0.00 87 1023.5
20260831031512 22 145 0.0 0.0 0.00 0.00 0.00 87 1023.5
20260831031414 22 153 0.0 0.0 0.00 0.00 0.00 87 1023.5
20260831031310 22 158 0.0 0.0 0.00 0.00 0.00 87 1023.5
20260831031211 22 159 0.0 0.0 0.00 0.00 0.00 87 1023.5
20260831031108 22 163 0.0 0.0 0.00 0.00 0.00 87 1023.5
20260831031003 22 165 0.0 0.0 0.00 0.00 0.00 87 1023.5
20260831030903 22 165 0.0 0.0 0.00 0.00 0.00 87 1023.5
20260831030803 22 165 0.0 0.0 0.00 0.00 0.00 87 1023.3
20260831030700 22 165 0.0 0.0 0.00 0.00 0.00 87 1023.3
20260831030559 22 166 0.0 0.0 0.00 0.00 0.00 87 1023.5
20260831030500 22 166 0.0 0.0 0.00 0.00 0.00 87 1023.5
20260831030356 22 166 0.0 0.0 0.00 0.00 0.00 87 1023.3
20260831030258 22 166 0.0 0.0 0.00 0.00 0.00 87 1023.3
20260831030155 22 167 0.0 0.0 0.00 0.00 0.00 87 1023.5
20260831030053 22 190 0.0 0.0 0.00 0.00 0.00 87 1023.5
20260831025952 22 191 0.0 0.0 0.00 0.00 0.00 87 1023.5
20260831025850 22 191 0.0 0.0 0.00 0.00 0.00 87 1023.5
20260831025750 22 191 0.0 0.0 0.00 0.00 0.00 87 1023.6
20260831025649 22 191 0.0 0.0 0.00 0.00 0.00 87 1023.5
20260831025546 22 191 0.0 0.0 0.00 0.00 0.00 87 1023.5
20260831025440 22 191 0.0 0.0 0.00 0.00 0.00 87 1023.6
20260831025341 22 191 0.0 0.0 0.00 0.00 0.00 87 1023.5
20260831025242 22 191 0.0 0.0 0.00 0.00 0.00 87 1023.5
20260831025140 22 191 0.0 0.0 0.00 0.00 0.00 87 1023.5
20260831025037 22 191 0.0 0.0 0.00 0.00 0.00 86 1023.5
20260831024934 22 192 0.0 0.0 0.00 0.00 0.00 86 1023.5
20260831024834 22 191 0.0 0.0 0.00 0.00 0.00 86 1023.5
20260831024735 22 192 0.0 0.0 0.00 0.00 0.00 87 1023.5
20260831024633 22 192 0.0 0.0 0.00 0.00 0.00 86 1023.5
20260831024531 22 192 0.0 0.0 0.00 0.00 0.00 86 1023.6
20260831024430 22 191 0.0 0.0 0.00 0.00 0.00 86 1023.3
20260831024330 22 191 0.0 0.0 0.00 0.00 0.00 87 1023.5
20260831024229 22 191 0.0 0.0 0.00 0.00 0.00 87 1023.5
20260831024127 22 192 0.0 0.0 0.00 0.00 0.00 87 1023.5
20260831024025 22 193 0.0 0.0 0.00 0.00 0.00 87 1023.5
20260831023919 22 193 0.0 0.0 0.00 0.00 0.00 87 1023.6
20260831023818 22 194 0.0 0.0 0.00 0.00 0.00 87 1023.5
20260831023719 22 195 0.0 0.0 0.00 0.00 0.00 87 1023.5
20260831023616 22 195 0.0 0.0 0.00 0.00 0.00 86 1023.5
20260831023514 22 194 0.0 0.0 0.00 0.00 0.00 86 1023.6
20260831023412 22 194 0.0 0.0 0.00 0.00 0.00 86 1023.6
20260831023309 22 194 0.0 0.0 0.00 0.00 0.00 86 1023.6
20260831023208 22 194 0.0 0.0 0.00 0.00 0.00 86 1023.6
20260831023110 22 196 0.0 0.0 0.00 0.00 0.00 86 1023.6
20260831023008 22 197 0.0 0.0 0.00 0.00 0.00 86 1023.6
20260831022908 22 197 0.0 0.0 0.00 0.00 0.00 86 1023.6
20260831022807 22 197 0.0 0.0 0.00 0.00 0.00 87 1023.6
20260831022704 22 197 0.0 0.0 0.00 0.00 0.00 87 1023.6
20260831022606 22 202 0.0 0.0 0.00 0.00 0.00 87 1023.7
20260831022502 22 202 0.0 0.0 0.00 0.00 0.00 87 1023.7
20260831022354 22 202 0.0 0.0 0.00 0.00 0.00 86 1023.7
20260831022254 22 202 0.0 0.0 0.00 0.00 0.00 86 1023.7
20260831022152 22 202 0.0 0.0 0.00 0.00 0.00 86 1023.7
20260831022052 22 201 0.0 0.0 0.00 0.00 0.00 86 1023.6
20260831021953 22 201 0.0 0.0 0.00 0.00 0.00 86 1023.6
20260831021852 22 193 0.0 0.0 0.00 0.00 0.00 86 1023.7
20260831021750 22 193 0.0 0.0 0.00 0.00 0.00 86 1023.6
20260831021651 22 193 0.0 0.0 0.00 0.00 0.00 86 1023.6
20260831021549 22 193 0.0 0.0 0.00 0.00 0.00 86 1023.5
20260831021447 22 193 0.0 0.0 0.00 0.00 0.00 86 1023.6
20260831021347 22 193 0.0 0.0 0.00 0.00 0.00 86 1023.6
20260831021244 22 193 0.0 0.0 0.00 0.00 0.00 86 1023.5
20260831021144 22 194 0.0 0.0 0.00 0.00 0.00 86 1023.5
20260831021043 22 215 0.0 0.0 0.00 0.00 0.00 86 1023.5
20260831020940 22 187 0.0 0.0 0.00 0.00 0.00 87 1023.3
20260831020832 22 202 0.0 0.0 0.00 0.00 0.00 87 1023.3
20260831020731 22 202 0.0 0.0 0.00 0.00 0.00 86 1023.5
20260831020630 22 206 0.0 0.0 0.00 0.00 0.00 86 1023.5
20260831020531 22 201 0.0 0.0 0.00 0.00 0.00 87 1023.5
20260831020430 22 196 0.0 0.0 0.00 0.00 0.00 87 1023.5
20260831020332 22 200 0.0 0.0 0.00 0.00 0.00 87 1023.5
20260831020228 22 182 0.0 0.0 0.00 0.00 0.00 87 1023.3
20260831020129 22 182 0.0 0.0 0.00 0.00 0.00 87 1023.6
20260831020026 22 188 0.0 0.0 0.00 0.00 0.00 87 1023.5
20260831015925 22 188 0.0 0.0 0.00 0.00 0.00 87 1023.5
20260831015824 22 190 0.0 0.0 0.00 0.00 0.00 87 1023.5
20260831015723 22 190 0.0 0.0 0.00 0.00 0.00 87 1023.6
20260831015620 22 189 0.0 0.0 0.00 0.00 0.00 87 1023.5
20260831015521 22 180 0.0 0.0 0.00 0.00 0.00 87 1023.6
20260831015420 22 179 0.0 0.0 0.00 0.00 0.00 87 1023.6
20260831015320 22 179 0.0 0.0 0.00 0.00 0.00 87 1023.6
20260831015220 22 178 0.0 0.0 0.00 0.00 0.00 87 1023.6
20260831015119 22 176 0.0 0.0 0.00 0.00 0.00 87 1023.6
20260831015019 22 186 0.0 0.0 0.00 0.00 0.00 87 1023.7
20260831014918 22 186 0.0 0.0 0.00 0.00 0.00 87 1023.7
20260831014816 22 192 0.0 0.0 0.00 0.00 0.00 87 1023.6
20260831014715 22 192 0.0 0.0 0.00 0.00 0.00 87 1023.6
20260831014611 22 190 0.0 0.0 0.00 0.00 0.00 87 1023.6
20260831014513 22 194 0.0 0.0 0.00 0.00 0.00 87 1023.6
20260831014412 22 195 0.0 0.0 0.00 0.00 0.00 87 1023.6
20260831014313 22 197 0.0 0.0 0.00 0.00 0.00 87 1023.6
20260831014213 22 202 0.0 0.0 0.00 0.00 0.00 87 1023.6
20260831014113 22 171 0.0 0.0 0.00 0.00 0.00 87 1023.5
20260831014011 22 185 0.0 0.0 0.00 0.00 0.00 87 1023.6
20260831013910 22 192 0.0 0.0 0.00 0.00 0.00 87 1023.5
20260831013810 22 180 0.0 0.0 0.00 0.00 0.00 87 1023.6
20260831013710 22 180 0.0 0.0 0.00 0.00 0.00 87 1023.5
20260831013604 22 181 0.0 0.0 0.00 0.00 0.00 87 1023.6
20260831013505 22 182 0.0 0.0 0.00 0.00 0.00 87 1023.5
20260831013405 22 182 0.0 0.0 0.00 0.00 0.00 87 1023.5
20260831013305 22 167 0.0 0.0 0.00 0.00 0.00 87 1023.3
20260831013205 22 198 0.0 0.0 0.00 0.00 0.00 87 1023.3
20260831013104 22 198 0.0 0.0 0.00 0.00 0.00 87 1023.3
20260831013002 22 198 0.0 0.0 0.00 0.00 0.00 87 1023.3
20260831012902 22 198 0.0 0.0 0.00 0.00 0.00 87 1023.5
20260831012800 22 198 0.0 0.0 0.00 0.00 0.00 87 1023.3
20260831012658 22 201 0.0 0.0 0.00 0.00 0.00 87 1023.3
20260831012558 22 193 0.0 0.0 0.00 0.00 0.00 87 1023.3
20260831012457 22 184 0.0 0.0 0.00 0.00 0.00 87 1023.3
20260831012356 22 184 0.0 0.0 0.00 0.00 0.00 87 1023.2
20260831012257 22 184 0.0 0.0 0.00 0.00 0.00 87 1023.1
20260831012156 22 179 0.0 0.0 0.00 0.00 0.00 87 1023.1
20260831012058 22 175 0.0 0.0 0.00 0.00 0.00 87 1023.1
20260831011954 22 175 0.0 0.0 0.00 0.00 0.00 87 1023.1
20260831011854 22 176 0.0 0.0 0.00 0.00 0.00 87 1023.0
20260831011752 22 175 0.0 0.0 0.00 0.00 0.00 87 1023.0
20260831011652 22 175 0.0 0.0 0.00 0.00 0.00 87 1023.0
20260831011552 22 181 0.0 0.0 0.00 0.00 0.00 87 1023.0
20260831011452 22 184 0.0 0.0 0.00 0.00 0.00 87 1023.0
20260831011352 22 184 0.0 0.0 0.00 0.00 0.00 87 1023.0
20260831011250 22 184 0.0 0.0 0.00 0.00 0.00 87 1023.0
20260831011152 22 186 0.0 0.0 0.00 0.00 0.00 87 1022.9
20260831011049 22 186 0.0 0.0 0.00 0.00 0.00 87 1023.0
20260831010947 22 142 0.0 0.0 0.00 0.00 0.00 87 1023.0
20260831010846 22 180 0.0 0.0 0.00 0.00 0.00 87 1023.0
20260831010744 22 180 0.0 0.0 0.00 0.00 0.00 88 1023.0
20260831010644 22 179 0.0 0.0 0.00 0.00 0.00 87 1023.0
20260831010546 22 179 0.0 0.0 0.00 0.00 0.00 87 1023.0
20260831010444 22 179 0.0 0.0 0.00 0.00 0.00 87 1022.9
20260831010342 22 179 0.0 0.0 0.00 0.00 0.00 87 1023.0
20260831010243 22 180 0.0 0.0 0.00 0.00 0.00 87 1023.0
20260831010143 22 176 0.0 0.0 0.00 0.00 0.00 87 1022.9
20260831010041 22 176 0.0 0.0 0.00 0.00 0.00 87 1022.9
20260831005939 22 176 0.0 0.0 0.00 0.00 0.00 87 1022.9
20260831005839 22 175 0.0 0.0 0.00 0.00 0.00 87 1022.8
20260831005736 22 175 0.0 0.0 0.00 0.00 0.00 87 1022.8
20260831005638 22 175 0.0 0.0 0.00 0.00 0.00 87 1022.8
20260831005534 22 176 0.0 0.0 0.00 0.00 0.00 87 1022.7
20260831005433 22 176 0.0 0.0 0.00 0.00 0.00 87 1022.8
20260831005327 22 176 0.0 0.0 0.00 0.00 0.00 87 1022.7
20260831005226 22 175 0.0 0.0 0.00 0.00 0.00 87 1022.7
20260831005125 22 179 0.0 0.0 0.00 0.00 0.00 87 1022.8
20260831005025 22 189 0.0 0.0 0.00 0.00 0.00 87 1022.7
20260831004923 22 188 0.0 0.0 0.00 0.00 0.00 87 1022.7
20260831004823 22 188 0.0 0.0 0.00 0.00 0.00 87 1022.7
20260831004720 22 188 0.0 0.0 0.00 0.00 0.00 87 1022.7
20260831004621 22 188 0.0 0.0 0.00 0.00 0.00 87 1022.6
20260831004519 22 188 0.0 0.0 0.00 0.00 0.00 87 1022.7
20260831004416 22 188 0.0 0.0 0.00 0.00 0.00 87 1022.6
20260831004317 22 188 0.0 0.0 0.00 0.00 0.00 87 1022.6
20260831004214 22 188 0.0 0.0 0.00 0.00 0.00 87 1022.6
20260831004113 22 188 0.0 0.0 0.00 0.00 0.00 87 1022.6
20260831004013 22 188 0.0 0.0 0.00 0.00 0.00 87 1022.6
20260831003910 22 189 0.0 0.0 0.00 0.00 0.00 87 1022.7
20260831003805 22 189 0.0 0.0 0.00 0.00 0.00 87 1022.7
20260831003704 22 189 0.0 0.0 0.00 0.00 0.00 87 1022.6
20260831003604 22 198 0.0 0.0 0.00 0.00 0.00 87 1022.7
20260831003506 22 167 0.0 0.0 0.00 0.00 0.00 87 1022.7
20260831003404 22 173 0.0 0.0 0.00 0.00 0.00 87 1022.6
20260831003303 22 176 0.0 0.0 0.00 0.00 0.00 87 1022.6
20260831003205 22 178 0.0 0.0 0.00 0.00 0.00 87 1022.7
20260831003104 22 178 0.0 0.0 0.00 0.00 0.00 87 1022.6
20260831003005 22 178 0.0 0.0 0.00 0.00 0.00 87 1022.6
20260831002904 22 178 0.0 0.0 0.00 0.00 0.00 87 1022.6
20260831002804 22 178 0.0 0.0 0.00 0.00 0.00 87 1022.6
20260831002705 22 180 0.0 0.0 0.00 0.00 0.00 87 1022.6
20260831002604 22 195 0.0 0.0 0.00 0.00 0.00 87 1022.6
20260831002504 22 196 0.0 0.0 0.00 0.00 0.00 87 1022.6
20260831002403 22 198 0.0 0.0 0.00 0.00 0.00 87 1022.6
20260831002306 22 181 0.0 0.0 0.00 0.00 0.00 87 1022.6
20260831002203 23 174 0.0 0.0 0.00 0.00 0.00 87 1022.6
20260831002058 23 174 0.0 0.0 0.00 0.00 0.00 87 1022.6
20260831001957 23 174 0.0 0.0 0.00 0.00 0.00 87 1022.7
20260831001857 23 174 0.0 0.0 0.00 0.00 0.00 86 1022.6
20260831001757 23 174 0.0 0.0 0.00 0.00 0.00 86 1022.6
20260831001656 23 169 0.0 0.0 0.00 0.00 0.00 86 1022.5
20260831001557 23 180 0.0 0.0 0.00 0.00 0.00 87 1022.5
20260831001456 23 150 0.0 0.0 0.00 0.00 0.00 87 1022.6
20260831001356 23 207 0.0 0.0 0.00 0.00 0.00 87 1022.6
20260831001257 23 207 0.0 0.0 0.00 0.00 0.00 87 1022.6
20260831001157 23 206 0.0 0.0 0.00 0.00 0.00 86 1022.6
20260831001054 23 207 0.0 0.0 0.00 0.00 0.00 86 1022.6
20260831000952 23 194 0.0 0.0 0.00 0.00 0.00 86 1022.5
20260831000850 23 169 0.0 0.0 0.00 0.00 0.00 86 1022.5
20260831000750 23 169 0.0 0.0 0.00 0.00 0.00 86 1022.5
20260831000649 23 169 0.0 0.0 0.00 0.00 0.00 86 1022.5
20260831000549 23 167 0.0 0.0 0.00 0.00 0.00 86 1022.5
20260831000447 23 188 0.0 0.0 0.00 0.00 0.00 86 1022.5
20260831000347 23 188 0.0 0.0 0.00 0.00 0.00 86 1022.5
20260831000248 23 188 0.0 0.0 0.00 0.00 0.00 86 1022.7
20260831000147 23 188 0.0 0.0 0.00 0.00 0.00 86 1022.5
20260831000047 23 188 0.0 0.0 0.00 0.00 0.00 86 1022.5
20260830235945 23 189 0.0 0.0 0.00 0.00 0.00 86 1022.5
20260830235845 23 205 0.0 0.0 0.00 0.00 0.00 87 1022.5
20260830235742 23 202 0.0 0.0 0.00 0.00 0.00 87 1022.4
20260830235643 23 202 0.0 0.0 0.00 0.00 0.00 86 1022.5
20260830235541 23 202 0.0 0.0 0.00 0.00 0.00 86 1022.6
20260830235440 23 208 0.0 0.0 0.00 0.00 0.00 86 1022.5
20260830235337 23 216 0.0 0.0 0.00 0.00 0.00 86 1022.6
20260830235239 23 217 0.0 0.0 0.00 0.00 0.00 86 1022.6
20260830235139 23 217 0.0 0.0 0.00 0.00 0.00 86 1022.6
20260830235039 23 217 0.0 0.0 0.00 0.00 0.00 86 1022.5
20260830234937 23 217 0.0 0.0 0.00 0.00 0.00 86 1022.5
20260830234837 23 217 0.0 0.0 0.00 0.00 0.00 86 1022.5
20260830234734 23 217 0.0 0.0 0.00 0.00 0.00 86 1022.5
20260830234635 23 217 0.0 0.0 0.00 0.00 0.00 86 1022.6
20260830234533 23 217 0.0 0.0 0.00 0.00 0.00 86 1022.5
20260830234431 23 217 0.0 0.0 0.00 0.00 0.00 86 1022.5
20260830234331 23 217 0.0 0.0 0.00 0.00 0.00 86 1022.5
20260830234229 23 217 0.0 0.0 0.00 0.00 0.00 86 1022.6
20260830234129 23 217 0.0 0.0 0.00 0.00 0.00 86 1022.5
20260830234027 23 217 0.0 0.0 0.00 0.00 0.00 86 1022.5
20260830233925 23 217 0.0 0.0 0.00 0.00 0.00 86 1022.5
20260830233817 23 217 0.0 0.0 0.00 0.00 0.00 85 1022.5
20260830233718 23 217 0.0 0.0 0.00 0.00 0.00 85 1022.6
20260830233616 23 217 0.0 0.0 0.00 0.00 0.00 85 1022.6
20260830233517 23 217 0.0 0.0 0.00 0.00 0.00 85 1022.5
20260830233414 23 217 0.0 0.0 0.00 0.00 0.00 85 1022.5
20260830233308 23 217 0.0 0.0 0.00 0.00 0.00 85 1022.6
20260830233208 23 217 0.0 0.0 0.00 0.00 0.00 85 1022.6
20260830233109 24 228 0.0 0.0 0.00 0.00 0.00 85 1022.5
20260830233007 24 238 0.0 0.0 0.00 0.00 0.00 85 1022.5
20260830232908 24 267 0.0 0.0 0.00 0.00 0.00 85 1022.5
20260830232805 24 269 0.0 0.0 0.00 0.00 0.00 85 1022.5
20260830232707 24 269 0.0 0.0 0.00 0.00 0.00 85 1022.6
20260830232606 24 269 0.0 0.0 0.00 0.00 0.00 84 1022.6
20260830232505 24 271 0.0 0.0 0.00 0.00 0.00 84 1022.6
20260830232404 24 280 0.0 0.0 0.00 0.00 0.00 84 1022.6
20260830232306 24 211 0.0 0.0 0.00 0.00 0.00 84 1022.6
20260830232204 24 211 0.0 0.0 0.00 0.00 0.00 84 1022.6
20260830232104 24 229 0.0 0.0 0.00 0.00 0.00 84 1022.5
20260830232005 24 199 0.0 0.0 0.00 0.00 0.00 84 1022.6
20260830231905 24 11 0.0 0.0 0.00 0.00 0.00 84 1022.6
20260830231804 24 69 0.0 0.0 0.00 0.00 0.00 84 1022.6
20260830231702 24 68 0.0 0.0 0.00 0.00 0.00 83 1022.7
20260830231602 24 101 0.0 0.0 0.00 0.00 0.00 83 1022.7
20260830231500 24 134 0.0 0.0 0.00 0.00 0.00 83 1022.7
20260830231400 24 103 0.0 0.0 0.00 0.00 0.00 83 1022.7
20260830231300 24 103 0.0 0.0 0.00 0.00 0.00 84 1022.7
20260830231200 24 103 0.0 0.0 0.00 0.00 0.00 84 1022.7
20260830231101 24 103 0.0 0.0 0.00 0.00 0.00 83 1022.7
20260830230958 25 103 0.0 0.0 0.00 0.00 0.00 83 1022.6
20260830230858 25 145 0.0 0.0 0.00 0.00 0.00 83 1022.6
20260830230757 25 128 0.0 0.0 0.00 0.00 0.00 83 1022.6
20260830230655 25 128 0.0 0.0 0.00 0.00 0.00 83 1022.6
20260830230548 25 127 0.0 0.0 0.00 0.00 0.00 83 1022.6
20260830230449 25 127 0.0 0.0 0.00 0.00 0.00 83 1022.5
20260830230348 25 127 0.0 0.0 0.00 0.00 0.00 83 1022.6
20260830230247 25 121 0.0 0.0 0.00 0.00 0.00 83 1022.5
20260830230144 25 170 0.0 0.0 0.00 0.00 0.00 83 1022.5
20260830230045 25 182 0.0 0.0 0.00 0.00 0.00 83 1022.5
20260830225942 25 186 0.0 0.0 0.00 0.00 0.00 83 1022.5
20260830225843 25 185 0.0 0.0 0.00 0.00 0.00 83 1022.5
20260830225740 25 185 0.0 0.0 0.00 0.00 0.00 83 1022.5
20260830225638 25 185 0.0 0.0 0.00 0.00 0.00 82 1022.5
20260830225538 25 185 0.0 0.0 0.00 0.00 0.00 82 1022.6
20260830225437 25 186 0.0 0.0 0.00 0.00 0.00 82 1022.5
20260830225335 25 185 0.0 0.0 0.00 0.00 0.00 81 1022.5
20260830225235 25 184 0.0 0.0 0.00 0.00 0.00 82 1022.4
20260830225132 25 162 0.0 0.0 0.00 0.00 0.00 82 1022.5
20260830225027 25 162 0.0 0.0 0.00 0.00 0.00 81 1022.5
20260830224926 25 161 0.0 0.0 0.00 0.00 0.00 81 1022.4
20260830224827 25 165 0.0 0.0 0.00 0.00 0.00 81 1022.4
20260830224725 25 256 0.0 0.0 0.00 0.00 0.00 81 1022.4
20260830224623 25 256 0.0 0.0 0.00 0.00 0.00 81 1022.4
20260830224522 25 180 0.0 0.0 0.00 0.00 0.00 81 1022.4
20260830224421 25 186 0.0 0.0 0.00 0.00 0.00 81 1022.3
20260830224320 25 182 0.0 0.0 0.00 0.00 0.00 81 1022.4
20260830224219 25 183 0.0 0.0 0.00 0.00 0.00 81 1022.4
20260830224117 25 183 0.0 0.0 0.00 0.00 0.00 81 1022.3
20260830224016 25 184 0.0 0.0 0.00 0.00 0.00 81 1022.4
20260830223915 25 182 0.0 0.0 0.00 0.00 0.00 81 1022.3
20260830223811 25 177 0.0 0.0 0.00 0.00 0.00 81 1022.3
20260830223713 25 166 0.0 0.0 0.00 0.00 0.00 81 1022.3
20260830223611 25 167 0.0 0.0 0.00 0.00 0.00 80 1022.3
20260830223505 25 163 0.0 0.0 0.00 0.00 0.00 80 1022.3
20260830223403 25 166 0.0 0.0 0.00 0.00 0.00 80 1022.4
20260830223305 25 166 0.0 0.0 0.00 0.00 0.00 80 1022.3
20260830223202 25 166 0.0 0.0 0.00 0.00 0.00 80 1022.4
20260830223100 25 165 0.0 0.0 0.00 0.00 0.00 80 1022.4
20260830222957 25 165 0.0 0.0 0.00 0.00 0.00 79 1022.4
20260830222855 26 165 0.0 0.0 0.00 0.00 0.00 80 1022.4
20260830222753 26 160 0.0 0.0 0.00 0.00 0.00 80 1022.5
20260830222655 26 160 0.0 0.0 0.00 0.00 0.00 80 1022.4
20260830222554 26 160 0.0 0.0 0.00 0.00 0.00 79 1022.5
20260830222449 26 160 0.0 0.0 0.00 0.00 0.00 79 1022.4
20260830222351 26 159 0.0 0.0 0.00 0.00 0.00 78 1022.5
20260830222249 26 171 0.0 0.0 0.00 0.00 0.00 78 1022.4
20260830222151 26 170 0.0 0.0 0.00 0.00 0.00 78 1022.4
20260830222048 26 177 0.0 0.0 0.00 0.00 0.00 78 1022.4
20260830221940 26 167 0.0 0.0 0.00 0.00 0.00 78 1022.4
20260830221841 26 190 0.0 0.0 0.00 0.00 0.00 78 1022.3
20260830221739 26 160 0.0 0.0 0.00 0.00 0.00 78 1022.3
20260830221640 26 160 0.0 0.0 0.00 0.00 0.00 78 1022.4
20260830221539 26 140 0.0 0.0 0.00 0.00 0.00 78 1022.4
20260830221438 26 161 0.0 0.0 0.00 0.00 0.00 78 1022.5
20260830221336 26 161 0.0 0.0 0.00 0.00 0.00 78 1022.5
20260830221236 26 163 0.0 0.0 0.00 0.00 0.00 78 1022.6
20260830221135 26 152 0.0 0.0 0.00 0.00 0.00 78 1022.5
20260830221033 26 134 0.0 0.0 0.00 0.00 0.00 77 1022.5
20260830220930 26 133 0.0 0.0 0.00 0.00 0.00 78 1022.5
20260830220831 26 133 0.0 0.0 0.00 0.00 0.00 78 1022.5
20260830220729 26 133 0.0 0.0 0.00 0.00 0.00 78 1022.5
20260830220629 26 132 0.0 0.0 0.00 0.00 0.00 78 1022.5
20260830220526 26 126 0.0 0.0 0.00 0.00 0.00 78 1022.5
20260830220421 26 126 0.0 0.0 0.00 0.00 0.00 78 1022.4
20260830220320 26 126 0.0 0.0 0.00 0.00 0.00 77 1022.5
20260830220220 26 126 0.0 0.0 0.00 0.00 0.00 77 1022.5
20260830220119 26 126 0.0 0.0 0.00 0.00 0.00 78 1022.5
20260830220017 26 126 0.0 0.0 0.00 0.00 0.00 78 1022.5
20260830215916 26 119 0.0 0.0 0.00 0.00 0.00 78 1022.4
20260830215814 26 120 0.0 0.0 0.00 0.00 0.00 77 1022.5
20260830215714 26 119 0.0 0.0 0.00 0.00 0.00 77 1022.4
20260830215613 26 138 0.0 0.0 0.00 0.00 0.00 78 1022.4
20260830215510 26 154 0.0 0.0 0.00 0.00 0.00 77 1022.4
20260830215406 26 123 0.0 0.0 0.00 0.00 0.00 77 1022.5
20260830215306 26 189 0.0 0.0 0.00 0.00 0.00 77 1022.5
20260830215206 26 222 0.0 0.0 0.00 0.00 0.00 77 1022.5
20260830215107 26 181 0.0 0.0 0.00 0.00 0.00 77 1022.6
20260830215005 26 197 0.0 0.0 0.00 0.00 0.00 77 1022.5
20260830214857 26 129 0.0 0.0 0.00 0.00 0.00 77 1022.6
20260830214754 26 128 0.0 0.0 0.00 0.00 0.00 77 1022.6
20260830214655 26 129 0.0 0.0 0.00 0.00 0.00 77 1022.5
20260830214555 26 157 0.0 0.0 0.00 0.00 0.00 77 1022.6
20260830214454 27 172 0.0 0.0 0.00 0.00 0.00 77 1022.6
20260830214354 27 174 0.0 0.0 0.00 0.00 0.00 76 1022.6
20260830214253 27 182 0.0 0.0 0.00 0.00 0.00 76 1022.6
20260830214155 27 185 0.0 0.0 0.00 0.00 0.00 77 1022.6
20260830214054 27 186 0.0 0.0 0.00 0.00 0.00 77 1022.5
20260830213954 27 190 0.0 0.0 0.00 0.00 0.00 77 1022.5
20260830213853 27 190 0.0 0.0 0.00 0.00 0.00 76 1022.5
20260830213750 27 153 0.0 0.0 0.00 0.00 0.00 76 1022.4
20260830213648 27 162 0.0 0.0 0.00 0.00 0.00 76 1022.4
20260830213547 27 161 0.0 0.0 0.00 0.00 0.00 76 1022.4
20260830213449 27 160 0.0 0.0 0.00 0.00 0.00 76 1022.5
20260830213346 27 157 0.0 0.0 0.00 0.00 0.00 77 1022.6
20260830213244 27 157 0.0 0.0 0.00 0.00 0.00 77 1022.6
20260830213144 27 150 0.0 0.0 0.00 0.00 0.00 78 1022.6
20260830213042 27 175 0.0 0.0 0.00 0.00 0.00 77 1022.5
20260830212942 27 183 0.0 0.0 0.00 0.00 0.00 78 1022.5
20260830212840 27 184 0.0 0.0 0.00 0.00 0.00 77 1022.4
20260830212738 27 184 0.0 0.0 0.00 0.00 0.00 78 1022.5
20260830212638 27 184 0.0 0.0 0.00 0.00 0.00 79 1022.6
20260830212536 27 184 0.0 0.0 0.00 0.00 0.00 78 1022.5
20260830212434 27 185 0.0 0.0 0.00 0.00 0.00 78 1022.6
20260830212333 27 185 0.0 0.0 0.00 0.00 0.00 78 1022.6
20260830212235 27 185 0.0 0.0 0.00 0.00 0.00 78 1022.5
20260830212133 27 185 0.0 0.0 0.00 0.00 0.00 77 1022.5
20260830212034 27 185 0.0 0.0 0.00 0.00 0.00 77 1022.5
20260830211934 27 185 0.0 0.0 0.00 0.00 0.00 77 1022.5
20260830211833 27 191 0.0 0.0 0.00 0.00 0.00 77 1022.4
20260830211735 27 198 0.0 0.0 0.00 0.00 0.00 77 1022.5
20260830211633 27 198 0.0 0.0 0.00 0.00 0.00 76 1022.4
20260830211533 27 126 0.0 0.0 0.00 0.00 0.00 77 1022.5
20260830211430 27 152 0.0 0.0 0.00 0.00 0.00 77 1022.5
20260830211331 27 153 0.0 0.0 0.00 0.00 0.00 77 1022.5
20260830211228 27 186 0.0 0.0 0.00 0.00 0.00 76 1022.6
20260830211123 27 177 0.0 0.0 0.00 0.00 0.00 76 1022.5
20260830211023 27 182 0.0 0.0 0.00 0.00 0.00 76 1022.4
20260830210924 27 190 0.0 0.0 0.00 0.00 0.00 77 1022.4
20260830210824 27 171 0.0 0.0 0.00 0.00 0.00 77 1022.5
20260830210723 27 169 0.0 0.0 0.00 0.00 0.00 77 1022.5
20260830210619 27 180 0.0 0.0 0.00 0.00 0.00 76 1022.5
20260830210521 27 148 0.0 0.0 0.00 0.00 0.00 77 1022.5
20260830210417 27 196 0.0 0.0 0.00 0.00 0.00 77 1022.5
20260830210318 27 162 0.0 0.0 0.00 0.00 0.00 78 1022.5
20260830210218 27 205 0.0 0.0 0.00 0.00 0.00 78 1022.5
20260830210119 27 132 0.0 0.0 0.00 0.00 0.00 76 1022.5
20260830210017 27 154 0.0 0.0 0.00 0.00 0.00 77 1022.5
20260830205919 27 133 0.0 0.0 0.00 0.00 0.00 76 1022.4
20260830205817 27 140 0.0 0.0 0.00 0.00 0.00 77 1022.6
20260830205718 27 202 0.0 0.0 0.00 0.00 0.00 77 1022.5
20260830205619 27 155 0.0 0.0 0.00 0.00 0.00 76 1022.5
20260830205516 27 136 0.0 0.0 0.00 0.00 0.00 76 1022.6
20260830205416 27 135 0.0 0.0 0.00 0.00 0.00 75 1022.6
20260830205315 27 135 0.0 0.0 0.00 0.00 0.00 75 1022.6
20260830205213 27 135 0.0 0.0 0.00 0.00 0.00 75 1022.6
20260830205113 27 139 0.0 0.0 0.00 0.00 0.00 76 1022.6
20260830205010 27 139 0.0 0.0 0.00 0.00 0.00 76 1022.7
20260830204910 27 139 0.0 0.0 0.00 0.00 0.00 75 1022.6
20260830204809 27 142 0.0 0.0 0.00 0.00 0.00 76 1022.6
20260830204708 27 146 0.0 0.0 0.00 0.00 0.00 76 1022.6
20260830204608 27 146 0.0 0.0 0.00 0.00 0.00 75 1022.6
20260830204508 27 142 0.0 0.0 0.00 0.00 0.00 76 1022.7
20260830204402 27 142 0.0 0.0 0.00 0.00 0.00 77 1022.6
20260830204302 27 183 0.0 0.0 0.00 0.00 0.00 75 1022.6
20260830204201 27 205 0.0 0.0 0.00 0.00 0.00 74 1022.6
20260830204102 27 180 0.0 0.0 0.00 0.00 0.00 75 1022.7
20260830204003 27 179 0.0 0.0 0.00 0.00 0.00 75 1022.7
20260830203859 27 146 0.0 0.0 0.00 0.00 0.00 75 1022.6
20260830203800 27 110 0.0 0.0 0.00 0.00 0.00 75 1022.6
20260830203700 27 130 0.0 0.0 0.00 0.00 0.00 75 1022.6
20260830203558 27 130 0.0 0.0 0.00 0.00 0.00 73 1022.6
20260830203457 27 143 0.0 0.0 0.00 0.00 0.00 75 1022.6
20260830203354 27 167 0.0 0.0 0.00 0.00 0.00 76 1022.6
20260830203253 27 142 0.0 0.0 0.00 0.00 0.00 76 1022.5
20260830203155 27 153 0.0 0.0 0.00 0.00 0.00 75 1022.5
20260830203055 27 138 0.0 0.0 0.00 0.00 0.00 76 1022.6
20260830202952 27 110 0.0 0.0 0.00 0.00 0.00 75 1022.7
20260830202852 27 164 0.0 0.0 0.00 0.00 0.00 75 1022.6
20260830202750 27 169 0.0 0.0 0.00 0.00 0.00 76 1022.6
20260830202651 27 158 0.0 0.0 0.00 0.00 0.00 76 1022.7
20260830202549 27 148 0.0 0.0 0.00 0.00 0.00 74 1022.6
20260830202447 27 152 0.0 0.0 0.00 0.00 0.00 74 1022.6
20260830202347 27 163 0.0 0.0 0.00 0.00 0.00 77 1022.5
20260830202243 27 184 0.0 0.0 0.00 0.00 0.00 77 1022.6
20260830202145 27 157 0.0 0.0 0.00 0.00 0.00 76 1022.6
20260830202042 27 155 0.0 0.0 0.00 0.00 0.00 76 1022.6
20260830201941 27 151 0.0 0.0 0.00 0.00 0.00 76 1022.7
20260830201843 27 146 0.0 0.0 0.00 0.00 0.00 75 1022.7
20260830201742 27 163 0.0 0.0 0.00 0.00 0.00 74 1022.7
20260830201640 27 121 0.0 0.0 0.00 0.00 0.00 77 1022.7
20260830201540 27 170 0.0 0.0 0.00 0.00 0.00 76 1022.7
20260830201439 27 204 0.0 0.0 0.00 0.00 0.00 76 1022.8
20260830201339 27 151 0.0 0.0 0.00 0.00 0.00 76 1022.9
20260830201241 27 174 0.0 0.0 0.00 0.00 0.00 75 1022.8
20260830201131 27 155 0.0 0.0 0.00 0.00 0.00 75 1022.8
20260830201029 27 159 0.0 0.0 0.00 0.00 0.00 77 1022.8
20260830200928 27 165 0.0 0.0 0.00 0.00 0.00 78 1022.8
20260830200829 27 113 0.0 0.0 0.00 0.00 0.00 77 1022.7
20260830200726 27 113 0.0 0.0 0.00 0.00 0.00 77 1022.7
20260830200619 27 109 0.0 0.0 0.00 0.00 0.00 77 1022.7
20260830200519 27 171 0.0 0.0 0.00 0.00 0.00 76 1022.7
20260830200421 27 115 0.0 0.0 0.00 0.00 0.00 76 1022.8
20260830200319 26 121 0.0 0.0 0.00 0.00 0.00 75 1022.8
20260830200221 26 141 0.0 0.0 0.00 0.00 0.00 77 1022.8
20260830200120 26 174 0.0 0.0 0.00 0.00 0.00 78 1022.7
20260830200020 26 188 0.0 0.0 0.00 0.00 0.00 78 1022.7
20260830195920 26 187 0.0 0.0 0.00 0.00 0.00 79 1022.9
20260830195818 26 142 0.0 0.0 0.00 0.00 0.00 78 1022.8
20260830195717 26 138 0.0 0.0 0.00 0.00 0.00 78 1022.8
20260830195617 26 110 0.0 0.0 0.00 0.00 0.00 78 1022.8
20260830195515 26 119 0.0 0.0 0.00 0.00 0.00 77 1022.9
20260830195411 26 116 0.0 0.0 0.00 0.00 0.00 79 1023.0
20260830195312 26 134 0.0 0.0 0.00 0.00 0.00 78 1023.0
20260830195209 26 109 0.0 0.0 0.00 0.00 0.00 78 1023.0
20260830195109 26 107 0.0 0.0 0.00 0.00 0.00 78 1022.9
20260830195009 26 157 0.0 0.0 0.00 0.00 0.00 78 1023.0
20260830194908 26 128 0.0 0.0 0.00 0.00 0.00 78 1023.0
20260830194807 26 130 0.0 0.0 0.00 0.00 0.00 77 1023.0
20260830194707 26 124 0.0 0.0 0.00 0.00 0.00 77 1023.1
20260830194608 26 119 0.0 0.0 0.00 0.00 0.00 77 1023.1
20260830194507 26 117 0.0 0.0 0.00 0.00 0.00 77 1023.1
20260830194407 26 111 0.0 0.0 0.00 0.00 0.00 77 1023.1
20260830194308 27 113 0.0 0.0 0.00 0.00 0.00 77 1023.0
20260830194207 27 116 0.0 0.0 0.00 0.00 0.00 76 1023.1
20260830194109 27 112 0.0 0.0 0.00 0.00 0.00 77 1023.1
20260830194007 27 147 0.0 0.0 0.00 0.00 0.00 76 1023.1
20260830193908 27 115 0.0 0.0 0.00 0.00 0.00 77 1023.1
20260830193808 27 146 0.0 0.0 0.00 0.00 0.00 77 1023.1
20260830193708 27 198 0.0 0.0 0.00 0.00 0.00 76 1023.1
20260830193609 27 160 0.0 0.0 0.00 0.00 0.00 77 1023.2
20260830193508 27 128 0.0 0.0 0.00 0.00 0.00 78 1023.1
20260830193407 27 108 0.0 0.0 0.00 0.00 0.00 77 1023.2
20260830193308 27 161 0.0 0.0 0.00 0.00 0.00 78 1023.2
20260830193208 27 183 0.0 0.0 0.00 0.00 0.00 77 1023.2
20260830193108 27 136 0.0 0.0 0.00 0.00 0.00 77 1023.2
20260830193004 27 159 0.0 0.0 0.00 0.00 0.00 78 1023.2
20260830192904 27 138 0.0 0.0 0.00 0.00 0.00 78 1023.2
20260830192804 27 109 0.0 0.0 0.00 0.00 0.00 78 1023.2
20260830192704 27 129 0.0 0.0 0.00 0.00 0.00 78 1023.2
20260830192604 27 98 0.0 0.0 0.00 0.00 0.00 78 1023.2
20260830192503 27 115 0.0 0.0 0.00 0.00 0.00 79 1023.2
20260830192404 27 117 0.0 0.0 0.00 0.00 0.00 80 1023.3
20260830192305 27 123 0.0 0.0 0.00 0.00 0.00 77 1023.2
20260830192203 27 108 0.0 0.0 0.00 0.00 0.00 79 1023.3
20260830192104 27 133 0.0 0.0 0.00 0.00 0.00 79 1023.2
20260830192004 27 98 0.0 0.0 0.00 0.00 0.00 78 1023.3
20260830191904 27 111 0.0 0.0 0.00 0.00 0.00 77 1023.3
20260830191803 27 123 0.0 0.0 0.00 0.00 0.00 76 1023.2
20260830191704 27 182 0.0 0.0 0.00 0.00 0.00 76 1023.3
20260830191603 27 150 0.0 0.0 0.00 0.00 0.00 76 1023.3
20260830191504 27 213 0.0 0.0 0.00 0.00 0.00 77 1023.5
20260830191405 27 76 0.0 0.0 0.00 0.00 0.00 77 1023.5
20260830191304 27 74 0.0 0.0 0.00 0.00 0.00 77 1023.3
20260830191203 27 71 0.0 0.0 0.00 0.00 0.00 77 1023.3
20260830191105 27 71 0.0 0.0 0.00 0.00 0.00 77 1023.3
20260830191004 27 68 0.0 0.0 0.00 0.00 0.00 75 1023.3
20260830190904 27 68 0.0 0.0 0.00 0.00 0.00 77 1023.2
20260830190804 27 99 0.0 0.0 0.00 0.00 0.00 79 1023.5
20260830190705 27 99 0.0 0.0 0.00 0.00 0.00 77 1023.3
20260830190604 27 99 0.0 0.0 0.00 0.00 0.00 76 1023.3
20260830190504 27 99 0.0 0.0 0.00 0.00 0.00 75 1023.5
20260830190404 27 99 0.0 0.0 0.00 0.00 0.00 75 1023.3
20260830190305 27 100 0.0 0.0 0.00 0.00 0.00 75 1023.5
20260830190204 27 111 0.0 0.0 0.00 0.00 0.00 75 1023.6
20260830190104 27 112 0.0 0.0 0.00 0.00 0.00 76 1023.6
20260830190005 27 111 0.0 0.0 0.00 0.00 0.00 76 1023.5
20260830185903 27 158 0.0 0.0 0.00 0.00 0.00 75 1023.6
20260830185805 27 158 0.0 0.0 0.00 0.00 0.00 75 1023.6
20260830185659 27 158 0.0 0.0 0.00 0.00 0.00 77 1023.6
20260830185601 27 87 0.0 0.0 0.00 0.00 0.00 75 1023.7
20260830185459 27 87 0.0 0.0 0.00 0.00 0.00 76 1023.6
20260830185400 27 259 0.0 0.0 0.00 0.00 0.00 77 1023.7
20260830185300 27 259 0.0 0.0 0.00 0.00 0.00 76 1023.7
20260830185201 27 259 0.0 0.0 0.00 0.00 0.00 77 1023.7
20260830185059 27 180 0.0 0.0 0.00 0.00 0.00 78 1023.6
20260830185001 27 161 0.0 0.0 0.00 0.00 0.00 76 1023.7
20260830184859 27 161 0.0 0.0 0.00 0.00 0.00 76 1023.7
20260830184759 27 161 0.0 0.0 0.00 0.00 0.00 75 1023.7
20260830184701 27 161 0.0 0.0 0.00 0.00 0.00 77 1023.7
20260830184558 27 161 0.0 0.0 0.00 0.00 0.00 76 1023.7
20260830184501 27 162 0.0 0.0 0.00 0.00 0.00 78 1023.7
20260830184401 27 162 0.0 0.0 0.00 0.00 0.00 77 1023.7
20260830184300 27 161 0.0 0.0 0.00 0.00 0.00 76 1023.8
20260830184159 27 152 0.0 0.0 0.00 0.00 0.00 77 1023.8
20260830184101 27 185 0.0 0.0 0.00 0.00 0.00 78 1023.9
20260830184000 27 185 0.0 0.0 0.00 0.00 0.00 78 1023.9
20260830183859 26 186 0.0 0.0 0.00 0.00 0.00 78 1023.9
20260830183800 26 188 0.0 3.2 0.00 0.00 0.00 79 1024.0
20260830183701 26 155 1.6 6.4 0.00 0.00 0.00 80 1024.0
20260830183559 26 112 1.6 6.4 0.00 0.00 0.00 79 1023.9
20260830183500 26 94 1.6 6.4 0.00 0.00 0.00 81 1024.1
20260830183359 26 87 1.6 6.4 0.00 0.00 0.00 79 1024.0
20260830183300 26 99 3.2 6.4 0.00 0.00 0.00 80 1024.0
20260830183201 26 101 3.2 6.4 0.00 0.00 0.00 80 1024.1
20260830183100 26 57 3.2 6.4 0.00 0.00 0.00 80 1024.1
20260830182959 26 51 3.2 6.4 0.00 0.00 0.00 80 1024.1
20260830182900 26 51 3.2 6.4 0.00 0.00 0.00 78 1024.1
20260830182800 26 51 3.2 6.4 0.00 0.00 0.00 79 1024.2
20260830182659 26 51 3.2 6.4 0.00 0.00 0.00 79 1024.1
20260830182559 26 50 3.2 6.4 0.00 0.00 0.00 79 1024.1
20260830182500 26 46 1.6 6.4 0.00 0.00 0.00 81 1024.2
20260830182355 26 31 1.6 6.4 0.00 0.00 0.00 81 1024.2
20260830182255 26 22 1.6 6.4 0.00 0.00 0.00 81 1024.2
20260830182156 26 5 1.6 6.4 0.00 0.00 0.00 81 1024.2
20260830182055 26 5 0.0 6.4 0.00 0.00 0.00 81 1024.2
20260830181957 26 328 0.0 6.4 0.00 0.00 0.00 80 1024.2
20260830181856 26 327 0.0 6.4 0.00 0.00 0.00 80 1024.2
20260830181755 26 348 0.0 0.0 0.00 0.00 0.00 80 1024.3
20260830181656 26 335 0.0 0.0 0.00 0.00 0.00 81 1024.2
20260830181556 26 350 0.0 0.0 0.00 0.00 0.00 80 1024.3
20260830181456 26 348 0.0 0.0 0.00 0.00 0.00 81 1024.3
20260830181357 26 355 0.0 0.0 0.00 0.00 0.00 82 1024.3
20260830181256 26 298 0.0 0.0 0.00 0.00 0.00 80 1024.3
20260830181157 26 299 0.0 0.0 0.00 0.00 0.00 80 1024.4
20260830181055 26 298 0.0 0.0 0.00 0.00 0.00 80 1024.4
20260830180957 26 301 0.0 0.0 0.00 0.00 0.00 80 1024.4
20260830180856 26 300 0.0 0.0 0.00 0.00 0.00 80 1024.4
20260830180757 26 335 0.0 0.0 0.00 0.00 0.00 80 1024.3
20260830180657 26 335 0.0 0.0 0.00 0.00 0.00 80 1024.4
20260830180556 26 334 0.0 0.0 0.00 0.00 0.00 78 1024.4
20260830180455 26 355 0.0 0.0 0.00 0.00 0.00 79 1024.4
20260830180355 26 355 0.0 0.0 0.00 0.00 0.00 81 1024.4
20260830180255 26 325 0.0 0.0 0.00 0.00 0.00 80 1024.4
20260830180157 26 321 0.0 0.0 0.00 0.00 0.00 81 1024.5
20260830180056 26 320 0.0 0.0 0.00 0.00 0.00 80 1024.5
20260830175956 26 320 0.0 0.0 0.00 0.00 0.00 79 1024.4
20260830175857 26 320 0.0 4.8 0.00 0.00 0.00 79 1024.4
20260830175755 26 24 0.0 4.8 0.00 0.00 0.00 79 1024.5
20260830175655 26 24 0.0 4.8 0.00 0.00 0.00 78 1024.5
20260830175556 26 24 0.0 4.8 0.00 0.00 0.00 78 1024.5
20260830175457 26 26 0.0 4.8 0.00 0.00 0.00 79 1024.4
20260830175355 26 26 0.0 4.8 0.00 0.00 0.00 79 1024.5
20260830175257 26 25 0.0 4.8 0.00 0.00 0.00 79 1024.6
20260830175157 26 25 0.0 4.8 0.00 0.00 0.00 80 1024.6
20260830175051 26 306 0.0 4.8 0.00 0.00 0.00 79 1024.6
20260830174953 26 306 0.0 4.8 0.00 0.00 0.00 79 1024.5
20260830174851 26 307 0.0 4.8 0.00 0.00 0.00 79 1024.6
20260830174752 26 308 0.0 0.0 0.00 0.00 0.00 79 1024.6
20260830174652 26 307 0.0 0.0 0.00 0.00 0.00 79 1024.6
20260830174551 26 309 0.0 0.0 0.00 0.00 0.00 80 1024.6
20260830174452 26 294 0.0 0.0 0.00 0.00 0.00 78 1024.7
20260830174352 26 294 0.0 0.0 0.00 0.00 0.00 79 1024.7
20260830174251 26 290 0.0 0.0 0.00 0.00 0.00 79 1024.7
20260830174152 26 290 0.0 0.0 0.00 0.00 0.00 78 1024.7
20260830174051 26 290 0.0 0.0 0.00 0.00 0.00 78 1024.7
20260830173953 26 290 0.0 0.0 0.00 0.00 0.00 78 1024.8
20260830173851 26 290 0.0 0.0 0.00 0.00 0.00 77 1024.8
20260830173751 26 290 0.0 0.0 0.00 0.00 0.00 78 1024.7
20260830173653 26 290 0.0 0.0 0.00 0.00 0.00 79 1024.8
20260830173551 26 289 0.0 0.0 0.00 0.00 0.00 80 1024.8
20260830173449 26 288 0.0 0.0 0.00 0.00 0.00 79 1024.8
20260830173349 26 288 0.0 0.0 0.00 0.00 0.00 79 1024.8
20260830173250 26 292 0.0 0.0 0.00 0.00 0.00 79 1024.9
20260830173147 26 290 0.0 0.0 0.00 0.00 0.00 80 1024.9
20260830173044 26 346 0.0 0.0 0.00 0.00 0.00 82 1024.9
20260830172944 25 5 0.0 0.0 0.00 0.00 0.00 80 1024.8
20260830172845 25 355 0.0 0.0 0.00 0.00 0.00 81 1024.9
20260830172744 25 0 0.0 0.0 0.00 0.00 0.00 81 1024.9
20260830172638 25 34 0.0 0.0 0.00 0.00 0.00 82 1025.1
20260830172537 25 48 0.0 0.0 0.00 0.00 0.00 83 1025.1
20260830172437 25 48 0.0 0.0 0.00 0.00 0.00 83 1025.1
20260830172336 25 49 0.0 0.0 0.00 0.00 0.00 83 1025.1
20260830172234 25 49 0.0 0.0 0.00 0.00 0.00 81 1025.1
20260830172135 25 49 0.0 0.0 0.00 0.00 0.00 83 1025.1
20260830172031 25 49 0.0 0.0 0.00 0.00 0.00 85 1025.2
20260830171930 25 49 0.0 0.0 0.00 0.00 0.00 84 1024.9
20260830171830 25 49 0.0 0.0 0.00 0.00 0.00 83 1025.1
20260830171727 25 49 0.0 0.0 0.00 0.00 0.00 83 1025.1
20260830171625 25 49 0.0 0.0 0.00 0.00 0.00 83 1025.1
20260830171522 24 48 0.0 0.0 0.00 0.00 0.00 84 1025.1
20260830171422 24 42 0.0 0.0 0.00 0.00 0.00 84 1025.1
20260830171323 24 24 0.0 0.0 0.00 0.00 0.00 85 1025.1
20260830171222 24 296 0.0 0.0 0.00 0.00 0.00 85 1025.2
20260830171117 24 295 0.0 0.0 0.00 0.00 0.00 85 1025.2
20260830171015 24 295 0.0 0.0 0.00 0.00 0.00 85 1025.1
20260830170916 24 296 0.0 0.0 0.00 0.00 0.00 83 1025.2
20260830170813 24 296 0.0 0.0 0.00 0.00 0.00 83 1025.3
20260830170711 24 296 0.0 0.0 0.00 0.00 0.00 84 1025.3
20260830170610 24 309 0.0 0.0 0.00 0.00 0.00 85 1025.3
20260830170511 24 310 0.0 0.0 0.00 0.00 0.00 85 1025.3
20260830170407 24 310 0.0 0.0 0.00 0.00 0.00 85 1025.3
20260830170309 24 333 0.0 0.0 0.00 0.00 0.00 84 1025.3
20260830170206 24 332 0.0 0.0 0.00 0.00 0.00 85 1025.3
20260830170101 24 332 0.0 0.0 0.00 0.00 0.00 84 1025.3
20260830170000 23 355 0.0 0.0 0.00 0.00 0.00 85 1025.4
20260830165901 24 355 0.0 0.0 0.00 0.00 0.00 85 1025.4
20260830165759 23 355 0.0 0.0 0.00 0.00 0.00 84 1025.4
20260830165700 23 355 0.0 0.0 0.00 0.00 0.00 84 1025.4
20260830165552 23 355 0.0 0.0 0.00 0.00 0.00 85 1025.4
20260830165452 23 355 0.0 0.0 0.00 0.00 0.00 85 1025.4
20260830165351 23 350 0.0 0.0 0.00 0.00 0.00 85 1025.5
20260830165251 23 308 0.0 0.0 0.00 0.00 0.00 85 1025.5
20260830165149 23 307 0.0 0.0 0.00 0.00 0.00 84 1025.5
20260830165047 23 307 0.0 0.0 0.00 0.00 0.00 84 1025.5
20260830164945 23 307 0.0 0.0 0.00 0.00 0.00 84 1025.5
20260830164846 23 307 0.0 0.0 0.00 0.00 0.00 84 1025.6
20260830164747 23 307 0.0 0.0 0.00 0.00 0.00 84 1025.6
20260830164644 23 300 0.0 0.0 0.00 0.00 0.00 84 1025.6
20260830164540 23 336 0.0 0.0 0.00 0.00 0.00 85 1025.6
20260830164437 24 346 0.0 0.0 0.00 0.00 0.00 85 1025.6
20260830164337 24 329 0.0 0.0 0.00 0.00 0.00 85 1025.5
20260830164237 24 338 0.0 0.0 0.00 0.00 0.00 85 1025.5
20260830164137 23 338 0.0 0.0 0.00 0.00 0.00 85 1025.6
20260830164033 23 69 0.0 0.0 0.00 0.00 0.00 85 1025.5
20260830163931 23 70 0.0 0.0 0.00 0.00 0.00 85 1025.6
20260830163832 23 69 0.0 0.0 0.00 0.00 0.00 85 1025.6
20260830163729 23 67 0.0 0.0 0.00 0.00 0.00 86 1025.5
20260830163628 23 41 0.0 0.0 0.00 0.00 0.00 87 1025.5
20260830163523 23 32 0.0 0.0 0.00 0.00 0.00 87 1025.6
20260830163425 23 30 0.0 0.0 0.00 0.00 0.00 87 1025.5
20260830163323 23 30 0.0 0.0 0.00 0.00 0.00 87 1025.6
20260830163224 23 28 0.0 0.0 0.00 0.00 0.00 86 1025.6
20260830163122 23 45 0.0 0.0 0.00 0.00 0.00 86 1025.6
20260830163022 23 43 0.0 0.0 0.00 0.00 0.00 85 1025.6
20260830162919 23 43 0.0 0.0 0.00 0.00 0.00 86 1025.6
20260830162819 23 44 0.0 0.0 0.00 0.00 0.00 86 1025.5
20260830162718 23 41 0.0 0.0 0.00 0.00 0.00 86 1025.5
20260830162616 23 33 0.0 0.0 0.00 0.00 0.00 86 1025.5
20260830162507 23 33 0.0 0.0 0.00 0.00 0.00 86 1025.5
20260830162409 23 0 0.0 0.0 0.00 0.00 0.00 86 1025.6
20260830162307 23 347 0.0 0.0 0.00 0.00 0.00 86 1025.6
20260830162207 23 344 0.0 0.0 0.00 0.00 0.00 86 1025.6
20260830162106 23 344 0.0 0.0 0.00 0.00 0.00 86 1025.6
20260830162005 23 344 0.0 0.0 0.00 0.00 0.00 87 1025.6
20260830161905 23 344 0.0 0.0 0.00 0.00 0.00 87 1025.6
20260830161806 23 343 0.0 0.0 0.00 0.00 0.00 87 1025.5
20260830161705 23 327 0.0 0.0 0.00 0.00 0.00 87 1025.5
20260830161606 23 5 0.0 0.0 0.00 0.00 0.00 86 1025.6
20260830161505 23 5 0.0 0.0 0.00 0.00 0.00 87 1025.5
20260830161405 23 23 0.0 0.0 0.00 0.00 0.00 87 1025.5
20260830161306 23 327 0.0 0.0 0.00 0.00 0.00 87 1025.6
20260830161205 23 311 0.0 8.0 0.00 0.00 0.00 87 1025.5
20260830161105 23 331 0.0 9.7 0.00 0.00 0.00 87 1025.5
20260830161006 23 319 0.0 9.7 0.00 0.00 0.00 87 1025.5
20260830160905 23 298 0.0 9.7 0.00 0.00 0.00 87 1025.6
20260830160805 23 324 0.0 9.7 0.00 0.00 0.00 87 1025.5